                ,  0.284,  0.381,  0.478,  0.575,  0.672,  0.769,  0.866,  0.963,  1.060,  1.157,  1.254,  1.351,  1.448,  1.545,  1.642,  1.740,  1.837,  1.934,  2.031,  2.128,  2.225,  2.322,  2.419,  2.516,  2.613,  2.710,  2.807,  2.904,  3.001,  3.098,  3.195,  3.292,  3.389,  3.486,  3.583,  3.680,  3.777,  3.874,  3.971,  4.068,  4.165,  4.262,  4.359,  4.456,  4.553,  4.650,  4.747,  4.844,  4.941,  5.039,  5.136,  5.233,  5.330,  5.427,  5.524,  5.621,  5.718,  5.815,  5.912,  6.009,  6.106,  6.203,  6.300,  6.397,  6.494,  6.591,  6.688,  6.785,  6.882,  6.979,  7.076,  7.173,  7.270,  7.367,  7.464,  7.561,  7.658,  7.755,  7.852,  7.949,  8.046,  8.143,  8.240,  8.338,  8.435,  8.532,  8.629,  8.726,  8.823,  8.920,  9.017,  9.114,  9.211,  9.308,  9.405,  9.502,  9.599,  9.696
2010/12/08 00:00,  999.0,  999.0,    5.6,    6.6,    7.9,    8.9,    9.7,    9.5,    9.4,    9.1,    8.9,    8.3,    8.2,    7.6,    7.0,    6.4,    5.0,    3.8,    3.5,    3.1,    3.3,    3.6,    4.4,    4.2,    4.9,    4.4,    3.7,    2.2,    1.3,    0.3,   -0.4,   -1.1,   -1.1,   -1.3,   -0.7,  999.0,    0.0,    0.1,    0.2,    0.3,    0.2,    0.1,    0.4,    0.1,   -0.1,   -0.2,   -0.2,   -0.1,    0.6,    0.4,    0.5,    0.1,  999.0,  999.0,   -0.8,   -0.2,  999.0,   -0.7,   -0.3,  999.0,  999.0,   -0.1,  999.0,   -0.0,  999.0,  999.0,  999.0,  999.0,  999.0,   -1.7,  999.0,  999.0,  999.0,  999.0,  999.0,  999.0,  999.0,  999.0,  999.0,  999.0,  999.0,  999.0,  999.0,  999.0,  999.0,  999.0,  999.0,   -4.7,   -4.9,   -6.0,   -6.6,  999.0,  999.0,  999.0,  999.0,  999.0,  999.0,  999.0
2010/12/08 00:10,  999.0,  999.0,  999.0,  999.0,    8.0,    9.1,    9.1,    9.0,    9.2,    8.9,    9.2,    8.8,    8.4,    8.2,    6.6,    6.1,  999.0,    4.6,    3.9,    3.8,    4.3,    4.7,    4.4,    4.1,    4.2,    3.7,    3.2,    2.0,    1.3,    0.6,   -0.0,   -0.9,   -1.1,   -0.9,    0.1,    0.1,    0.0,    0.3,   -0.1,    0.2,    0.4,   -0.0,    0.3,   -0.1,   -0.2,   -0.4,   -0.3,   -0.1,   -0.0,    0.2,    0.1,   -0.2,   -0.7,   -0.9,   -0.4,    0.2,   -0.1,   -0.4,   -0.1,   -0.1,   -0.2,   -0.1,  999.0,   -0.1,  999.0,   -0.1,  999.0,  999.0,  999.0,  999.0,  999.0,  999.0,  999.0,  999.0,  999.0,  999.0,  999.0,  999.0,  999.0,  999.0,  999.0,  999.0,  999.0,  999.0,  999.0,  999.0,  999.0,   -0.2,  999.0,  999.0,  999.0,  999.0,  999.0,    0.1,    0.0,  999.0,  999.0,   -0.1
2010/12/08 00:20,  999.0,  999.0,    6.5,    7.0,    7.7,    8.9,    9.4,    9.4,    9.1,    8.8,    8.6,    8.2,    8.2,    8.4,  999.0,    7.9,    5.9,    5.1,    4.9,    4.9,    4.6,    4.3,    4.3,    4.1,    4.2,    2.9,    1.8,    0.9,    0.7,    0.3,   -0.1,   -0.7,   -0.9,   -0.9,    0.0,   -0.3,   -0.3,   -0.3,   -0.3,   -0.1,   -0.1,   -0.0,   -0.3,   -0.7,   -0.3,   -0.8,   -1.3,   -1.0,   -0.2,   -0.0,   -0.1,   -0.1,   -0.8,   -1.1,   -1.1,   -0.4,   -0.0,   -0.0,    0.0,   -0.0,   -0.1,   -0.0,    0.0,    0.0,  999.0,   -0.1,  999.0,  999.0,  999.0,    0.1,  999.0,  999.0,  999.0,  999.0,  999.0,  999.0,  999.0,  999.0,  999.0,  999.0,  999.0,  999.0,  999.0,  999.0,  999.0,  999.0,  999.0,  999.0,    0.0,   -0.0,  999.0,  999.0,  999.0,  999.0,    0.0,  999.0,  999.0,   -0.0
2010/12/08 00:30,  999.0,  999.0,  999.0,    7.2,    8.1,    8.7,    9.3,    9.1,    8.7,    8.6,    9.3,    8.9,    8.6,    8.1,    8.0,    6.6,    5.5,    5.6,    5.1,    4.7,    3.8,    3.7,    3.8,    3.8,    3.7,    2.2,    1.4,    0.4,    0.4,    0.2,   -0.2,   -0.8,   -0.9,   -0.3,    0.0,    0.0,    0.1,    0.0,    0.0,   -0.0,    0.1,    0.1,    0.1,   -0.4,   -0.1,   -0.3,   -0.7,   -0.3,   -0.0,   -0.0,   -0.2,   -0.1,   -0.1,   -0.3,   -0.7,   -0.7,   -0.1,   -0.1,   -0.0,   -0.0,   -0.0,   -0.1,   -0.1,   -0.2,  999.0,   -0.0,    0.1,   -0.1,    0.1,  999.0,  999.0,  999.0,  999.0,  999.0,  999.0,  999.0,  999.0,  999.0,  999.0,  999.0,  999.0,  999.0,  999.0,  999.0,  999.0,  999.0,  999.0,  999.0,   -0.1,   -0.1,  999.0,  999.0,    0.0,  999.0,  999.0,  999.0,  999.0,  999.0
2010/12/08 00:40,  999.0,    5.8,    6.6,    7.6,    8.3,    8.4,    8.6,    8.8,    8.8,    9.1,    9.6,    9.4,    9.5,    9.2,    8.5,    8.0,    6.4,    5.9,    5.1,    4.3,    3.8,    3.6,    3.8,    4.0,    3.8,    2.8,    1.7,    0.7,    0.1,   -0.2,   -0.3,   -0.7,   -0.9,    0.5,    0.7,    0.3,    0.3,    0.2,   -0.1,    0.1,   -0.0,   -0.2,   -0.2,   -0.5,   -0.1,   -0.1,   -0.9,   -0.5,   -0.1,   -0.0,   -0.2,   -0.2,   -0.2,   -0.1,   -0.1,   -0.4,   -0.4,   -0.1,   -0.1,   -0.1,   -0.3,   -0.1,   -0.1,   -0.1,    0.1,   -0.0,  999.0,    0.1,  999.0,  999.0,  999.0,  999.0,  999.0,  999.0,  999.0,   -0.1,  999.0,  999.0,  999.0,  999.0,  999.0,  999.0,  999.0,  999.0,  999.0,  999.0,  999.0,  999.0,   -0.0,   -0.0,  999.0,  999.0,  999.0,  999.0,  999.0,  999.0,  999.0,  999.0
2010/12/08 00:50,  999.0,    5.9,    6.0,    6.9,    6.8,    6.9,    6.7,    6.9,    7.0,    7.3,    7.4,    7.6,    7.7,    8.4,    7.8,    7.6,    6.2,    5.1,    4.4,    3.8,    3.7,    3.5,    3.7,    4.1,    3.7,    2.6,    1.5,    0.8,    0.5,   -0.2,   -0.3,   -0.4,    0.0,    0.5,    0.3,    0.1,    0.1,   -0.1,    0.0,   -0.1,   -0.2,   -0.3,   -0.6,   -0.5,   -0.2,   -0.7,   -1.2,   -1.2,   -0.9,   -0.5,   -0.5,   -0.2,   -0.1,   -0.0,    0.0,    0.1,    0.0,   -0.1,   -0.1,   -0.1,    0.0,   -0.1,   -0.0,   -0.0,   -0.2,    0.0,    0.1,  999.0,    0.1,    0.0,  999.0,  999.0,  999.0,  999.0,  999.0,  999.0,  999.0,  999.0,  999.0,  999.0,  999.0,  999.0,  999.0,  999.0,  999.0,  999.0,    0.1,   -0.0,    0.1,  999.0,    0.1,  999.0,    0.1,  999.0,  999.0,  999.0,   -0.3,   -0.0
2010/12/08 01:00,    5.0,    4.3,    5.7,    6.0,    6.5,    6.7,    6.7,    6.8,    7.5,    7.6,    8.1,    8.7,    8.8,    8.8,    8.5,    7.8,    6.6,    5.3,    4.2,    4.0,    3.8,    3.5,    3.2,    3.7,    3.9,    3.0,    1.9,    0.9,    0.1,   -0.1,   -0.6,   -0.6,   -0.2,    0.6,    0.3,    0.0,   -0.1,    0.1,   -0.2,   -0.6,   -0.7,   -0.7,   -1.1,   -0.9,   -0.5,   -2.3,   -2.0,   -0.7,   -1.7,   -0.9,   -0.2,   -0.3,   -0.1,   -0.0,    0.1,    0.1,   -0.0,   -0.2,   -0.2,   -0.2,   -0.0,   -0.1,   -0.2,  999.0,  999.0,  999.0,  999.0,  999.0,   -0.0,   -0.0,  999.0,  999.0,  999.0,  999.0,  999.0,  999.0,  999.0,  999.0,  999.0,  999.0,  999.0,  999.0,  999.0,  999.0,  999.0,  999.0,  999.0,  999.0,    0.0,  999.0,  999.0,  999.0,  999.0,    0.0,  999.0,  999.0,  999.0,  999.0
2010/12/08 01:10,  999.0,  999.0,    6.6,    7.0,    7.3,    7.4,    7.3,    7.1,    7.2,    7.3,    8.2,    9.0,    8.9,    8.6,    7.9,    7.6,    6.1,    5.1,    4.3,    4.1,    3.7,    3.3,    3.0,    3.3,    3.0,    1.6,    1.0,   -0.3,   -0.6,   -0.6,   -0.6,   -0.4,    0.7,    0.7,    0.2,    0.1,   -0.0,    0.1,   -0.0,   -0.2,   -0.5,   -0.6,   -0.7,   -1.5,   -1.3,   -2.1,   -2.1,   -1.0,   -0.8,   -0.5,   -0.3,    0.0,    0.1,    0.1,    0.2,    0.2,    0.0,    0.0,    0.0,   -0.2,   -0.0,   -0.2,  999.0,  999.0,  999.0,  999.0,  999.0,  999.0,  999.0,  999.0,  999.0,  999.0,  999.0,  999.0,  999.0,  999.0,  999.0,  999.0,  999.0,  999.0,  999.0,  999.0,  999.0,  999.0,  999.0,  999.0,  999.0,   -0.2,  999.0,  999.0,    0.1,  999.0,   -0.0,  999.0,  999.0,  999.0,  999.0,  999.0
2010/12/08 01:20,  999.0,    5.7,    6.0,    6.6,    7.6,  999.0,    8.0,    8.2,    8.3,    8.9,    9.5,    9.3,    9.4,    9.8,    8.2,    7.5,    6.1,    5.3,    4.8,    4.2,    4.0,    3.9,    3.5,    3.5,    3.1,    1.9,    1.3,   -0.0,   -0.7,   -0.6,   -0.6,  999.0,    1.1,    0.7,    0.7,    0.3,    0.3,    0.3,    0.2,    0.6,    0.2,    0.2,   -0.1,   -0.8,   -0.6,   -1.6,   -1.9,   -1.1,   -0.6,   -0.1,   -0.1,    0.0,   -0.0,   -0.0,    0.2,    0.4,    0.2,   -0.0,   -0.0,   -0.2,   -0.2,   -0.9,  999.0,  999.0,  999.0,  999.0,  999.0,  999.0,  999.0,  999.0,  999.0,  999.0,  999.0,  999.0,  999.0,  999.0,  999.0,  999.0,  999.0,  999.0,  999.0,  999.0,  999.0,  999.0,  999.0,  999.0,  999.0,  999.0,  999.0,  999.0,  999.0,  999.0,  999.0,  999.0,  999.0,  999.0,  999.0,  999.0
2010/12/08 01:30,    4.8,    5.4,    5.5,    6.9,    7.7,    8.0,    7.9,    8.2,    8.6,    8.9,    9.0,    9.0,    9.2,    9.3,    9.3,    7.6,    6.7,    5.3,    5.0,    4.4,    4.4,    4.5,    4.6,    4.3,    3.9,    2.7,    1.9,    1.2,    0.4,    0.2,    0.5,    1.2,    1.4,    0.9,    1.0,    0.3,    0.1,    0.3,    0.4,    0.3,    0.3,    0.3,   -0.0,   -0.5,   -0.4,   -0.9,   -1.5,   -0.7,   -0.3,    0.0,    0.0,   -0.0,   -0.0,    0.0,    0.2,    0.4,    0.2,   -0.2,   -0.0,   -0.2,   -0.1,   -0.0,  999.0,  999.0,  999.0,   -0.0,  999.0,  999.0,    0.0,  999.0,  999.0,  999.0,  999.0,  999.0,  999.0,  999.0,  999.0,  999.0,   -0.6,   -0.3,  999.0,  999.0,  999.0,  999.0,  999.0,  999.0,  999.0,   -0.1,   -0.0,  999.0,  999.0,  999.0,  999.0,    0.1,  999.0,  999.0,  999.0,  999.0
2010/12/08 01:40,  999.0,    5.2,    5.9,    7.0,    8.0,    8.0,    8.6,    9.0,    8.8,    8.7,    8.8,    9.4,    9.5,    8.8,    9.0,    8.2,    6.0,    5.3,    4.5,    4.0,    3.5,    3.7,    3.8,    3.7,    3.7,    2.7,    1.7,    1.3,    0.8,    0.7,    1.1,    1.7,    1.3,    1.1,    1.1,    0.3,    0.3,    0.3,    0.5,    0.2,    0.3,    0.1,   -0.3,   -0.3,   -0.2,   -0.7,   -0.8,   -0.2,    0.0,    0.0,   -0.0,    0.0,    0.0,    0.0,    0.1,    0.4,    0.3,   -0.0,    0.0,    0.0,   -0.1,   -0.0,  999.0,  999.0,    0.1,    0.0,  999.0,  999.0,  999.0,  999.0,  999.0,  999.0,  999.0,  999.0,  999.0,  999.0,  999.0,  999.0,  999.0,  999.0,  999.0,  999.0,  999.0,  999.0,  999.0,  999.0,  999.0,  999.0,  999.0,  999.0,   -0.0,  999.0,  999.0,  999.0,  999.0,  999.0,  999.0,  999.0
2010/12/08 01:50,  999.0,    4.8,    5.1,    6.2,    7.7,    8.2,    8.8,    9.0,    9.2,    9.1,    9.2,    9.1,    9.5,    9.5,    9.3,    7.3,    5.5,    4.7,    4.4,    4.0,    3.8,    4.0,    3.8,    3.7,    4.3,    3.3,    2.3,    1.6,    1.2,    0.9,    1.2,    1.9,    1.5,    1.4,    1.1,    0.5,    0.6,    0.8,    0.7,    0.4,    0.7,    0.3,   -0.5,   -0.6,   -0.3,   -0.4,   -0.4,   -0.2,   -0.0,   -0.0,   -0.0,    0.0,   -0.0,    0.1,    0.1,    0.7,    0.8,    0.1,    0.1,   -0.0,   -0.0,   -0.1,  999.0,  999.0,  999.0,   -0.2,  999.0,  999.0,  999.0,  999.0,  999.0,  999.0,  999.0,  999.0,  999.0,  999.0,  999.0,  999.0,  999.0,  999.0,  999.0,  999.0,  999.0,  999.0,  999.0,  999.0,  999.0,  999.0,  999.0,  999.0,  999.0,  999.0,  999.0,  999.0,  999.0,  999.0,  999.0,  999.0
2010/12/08 02:00,  999.0,  999.0,    4.7,    6.0,    7.6,  999.0,    8.8,    8.9,    8.6,    8.6,    9.1,    9.2,    9.3,    9.2,    7.9,    6.7,    5.4,    3.9,    3.8,    3.3,    2.8,    2.7,    1.9,    2.6,    2.7,    2.9,    1.8,    1.4,    0.9,    1.0,    1.0,    2.4,    2.3,    2.0,    1.8,    1.1,    1.3,    1.5,    0.9,    1.0,    1.0,   -0.3,   -0.8,   -0.6,   -0.2,   -0.2,   -0.3,   -0.1,    0.0,   -0.1,   -0.0,    0.1,   -0.0,   -0.0,    0.1,    0.2,    0.4,    0.1,    0.1,    0.0,   -0.2,   -0.0,  999.0,  999.0,   -0.0,  999.0,  999.0,  999.0,  999.0,  999.0,  999.0,  999.0,  999.0,  999.0,  999.0,  999.0,  999.0,  999.0,  999.0,  999.0,  999.0,  999.0,  999.0,  999.0,  999.0,  999.0,  999.0,  999.0,  999.0,   -0.1,  999.0,    0.3,   -0.0,  999.0,  999.0,  999.0,  999.0,  999.0
2010/12/08 02:10,  999.0,  999.0,    5.4,    7.1,    8.2,    8.7,    8.7,    8.9,    8.7,    8.6,    8.9,    9.0,    9.0,    9.0,    7.8,    5.9,    5.1,    3.9,    3.9,    3.3,    3.3,    3.1,    2.8,    3.1,    3.6,    2.8,    1.8,    1.2,    0.8,    0.6,    0.7,    1.8,    1.9,    1.7,    1.7,    0.9,    1.2,    1.3,    0.9,    1.0,    1.0,    0.4,   -0.5,   -0.7,   -0.5,   -0.5,   -0.3,   -0.2,    0.0,    0.1,    0.0,    0.1,    0.1,    0.0,    0.1,    0.3,    0.4,    0.0,    0.0,    0.0,   -0.1,   -0.0,  999.0,  999.0,  999.0,  999.0,  999.0,  999.0,  999.0,  999.0,  999.0,  999.0,  999.0,  999.0,  999.0,  999.0,  999.0,  999.0,  999.0,  999.0,  999.0,  999.0,  999.0,  999.0,  999.0,  999.0,  999.0,  999.0,    0.2,   -0.1,    0.0,   -0.0,  999.0,  999.0,  999.0,  999.0,  999.0,  999.0
2010/12/08 02:20,  999.0,  999.0,    6.0,    7.8,    8.5,    8.7,    9.2,    9.4,    9.5,    8.7,    8.8,    9.2,    9.1,    8.9,    9.1,    6.3,    5.2,    4.4,  999.0,  999.0,    3.9,    4.1,    4.1,    3.9,    4.4,    4.1,    3.0,    2.2,    1.3,    1.0,    0.9,    1.6,    2.1,    1.9,    1.3,    0.9,    0.6,    0.8,    1.3,    1.2,    1.1,    0.9,    0.4,   -0.3,   -0.7,   -1.1,   -0.9,   -0.1,    0.1,    0.0,    0.0,   -0.1,    0.1,    0.1,    0.2,    0.1,    0.1,   -0.1,   -0.1,   -0.1,   -0.0,    0.1,   -0.1,  999.0,  999.0,  999.0,  999.0,  999.0,  999.0,  999.0,  999.0,  999.0,  999.0,  999.0,  999.0,  999.0,  999.0,  999.0,  999.0,  999.0,  999.0,  999.0,  999.0,  999.0,  999.0,  999.0,  999.0,  999.0,   -0.2,  999.0,   -0.2,    0.0,  999.0,  999.0,  999.0,  999.0,  999.0,  999.0
2010/12/08 02:30,  999.0,  999.0,  999.0,    7.4,    8.6,    9.2,    9.5,    9.4,    9.3,    8.6,    8.6,    8.9,    8.8,    8.4,  999.0,    5.5,    4.6,  999.0,    3.8,    3.9,    3.6,    3.6,    3.4,    3.4,    4.0,    3.6,    2.9,    1.9,    1.5,    1.3,    1.5,    1.8,    2.0,    1.9,    1.1,    0.8,    0.7,    0.5,    0.7,    1.0,    0.8,    0.7,    0.2,   -0.2,   -0.9,   -1.9,   -1.9,   -0.5,   -0.1,   -0.1,    0.1,    0.1,    0.1,   -0.0,    0.1,    0.3,    0.1,   -0.0,   -0.0,   -0.1,   -0.1,   -0.0,  999.0,  999.0,  999.0,  999.0,  999.0,  999.0,  999.0,  999.0,  999.0,  999.0,  999.0,  999.0,  999.0,  999.0,  999.0,  999.0,  999.0,  999.0,  999.0,  999.0,  999.0,  999.0,  999.0,  999.0,  999.0,  999.0,  999.0,   -0.1,   -0.0,  999.0,  999.0,  999.0,  999.0,  999.0,  999.0,  999.0
2010/12/08 02:40,  999.0,  999.0,  999.0,    7.8,    8.7,    9.5,    9.2,    8.9,    8.8,    9.1,    9.2,    9.0,    9.3,    8.4,    7.8,    6.6,    5.2,    2.7,    3.0,    3.3,    3.5,    3.3,    3.8,    3.7,    3.9,    3.9,    2.7,    2.4,    1.6,    1.3,    1.5,    1.9,    2.1,    1.6,    0.9,    0.6,    0.2,    0.4,    0.3,    0.7,    0.5,    0.2,   -0.2,   -0.4,   -0.5,   -1.5,   -2.0,   -0.1,   -0.0,   -0.1,    0.0,    0.0,    0.2,    0.1,    0.1,    0.3,    0.1,   -0.1,   -0.0,   -0.1,   -0.1,   -0.0,  999.0,  999.0,  999.0,    0.1,  999.0,  999.0,  999.0,  999.0,  999.0,  999.0,  999.0,  999.0,  999.0,  999.0,  999.0,  999.0,  999.0,  999.0,  999.0,  999.0,  999.0,  999.0,  999.0,  999.0,  999.0,  999.0,    0.2,  999.0,  999.0,  999.0,    0.1,  999.0,  999.0,  999.0,  999.0,  999.0
2010/12/08 02:50,  999.0,  999.0,    5.5,    6.6,    7.8,    8.3,    8.1,    8.2,    9.3,    9.4,    9.5,    9.5,   10.1,   10.4,   10.0,    8.4,    6.9,    5.3,    4.5,    3.8,    3.7,    3.6,    3.8,    4.1,    4.3,    4.7,    3.9,    3.1,    2.4,    2.4,    1.8,    2.2,    2.5,    1.6,    1.1,    1.2,    0.9,    0.5,    0.6,    0.7,    1.1,    0.9,    0.2,   -0.3,   -0.9,   -1.5,   -1.5,   -0.7,   -0.2,   -0.1,   -0.0,    0.0,    0.2,    0.1,    0.1,    0.3,    0.1,   -0.1,   -0.1,   -0.0,   -0.0,   -0.1,  999.0,    0.2,  999.0,  999.0,    0.1,  999.0,  999.0,  999.0,  999.0,  999.0,  999.0,  999.0,  999.0,  999.0,  999.0,  999.0,  999.0,  999.0,  999.0,  999.0,  999.0,  999.0,  999.0,  999.0,  999.0,    0.1,  999.0,  999.0,    0.1,   -0.1,  999.0,  999.0,  999.0,  999.0,  999.0,  999.0
2010/12/08 03:00,  999.0,  999.0,  999.0,    6.0,    6.8,    7.7,    8.2,    9.0,    9.7,    9.0,    9.5,    9.6,    9.7,    9.6,    9.3,    8.1,    6.0,    5.5,  999.0,    3.8,    3.2,    2.9,    3.6,  999.0,    3.9,    4.3,    3.5,    2.5,    1.6,    1.5,    1.7,    2.2,    2.4,    1.8,    1.2,    1.3,    1.0,    0.8,    0.8,    1.0,    1.1,    0.7,    0.3,   -0.1,   -0.8,   -1.7,  999.0,   -1.1,   -0.4,   -0.1,   -0.0,    0.1,    0.0,    0.1,    0.1,    0.3,    0.2,   -0.1,   -0.0,   -0.0,    0.1,    0.2,  999.0,  999.0,  999.0,  999.0,    0.0,  999.0,  999.0,  999.0,  999.0,  999.0,  999.0,  999.0,  999.0,  999.0,  999.0,  999.0,  999.0,  999.0,  999.0,  999.0,  999.0,  999.0,  999.0,  999.0,  999.0,    0.1,  999.0,  999.0,  999.0,    0.0,    0.0,   -0.1,  999.0,  999.0,  999.0,  999.0
2010/12/08 03:10,  999.0,  999.0,    6.1,    6.9,    7.7,    8.2,    8.9,    9.3,    9.7,    9.6,    9.6,    9.8,   10.4,    9.6,    9.0,    8.6,    6.7,    4.8,    3.8,    3.7,    3.1,    3.0,    3.4,    3.9,    3.6,    4.0,    3.4,    1.7,    1.5,    1.2,    1.3,    2.1,    2.2,    1.9,    1.0,    1.1,    1.0,    0.6,    0.6,    0.5,    0.5,    0.1,  999.0,    0.2,   -0.5,   -1.3,   -1.1,   -0.9,   -0.5,    0.1,   -0.0,    0.0,   -0.0,   -0.0,    0.0,    0.3,    0.3,   -0.1,   -0.0,    0.0,    0.0,    0.0,  999.0,  999.0,  999.0,  999.0,  999.0,  999.0,  999.0,  999.0,  999.0,  999.0,  999.0,  999.0,  999.0,  999.0,  999.0,  999.0,  999.0,  999.0,  999.0,  999.0,  999.0,  999.0,  999.0,  999.0,  999.0,  999.0,    0.2,  999.0,    0.0,  999.0,  999.0,  999.0,  999.0,  999.0,  999.0,  999.0
2010/12/08 03:20,  999.0,    5.2,  999.0,    7.1,    8.6,    8.8,    9.0,    9.2,    9.3,    9.7,   10.3,   10.3,   11.0,   11.0,    9.2,    8.2,    8.0,    5.4,    3.7,    3.5,    3.3,    3.7,    3.8,    3.7,    3.5,    3.7,    3.0,    1.3,    1.3,    1.1,    1.2,    1.9,    2.0,    1.6,    1.1,    0.8,    0.8,    0.3,    0.2,    0.1,    0.5,    1.0,    0.7,   -0.0,   -0.9,  999.0,  999.0,   -1.0,   -0.5,   -0.1,    0.0,   -0.0,   -0.0,    0.0,    0.0,   -0.1,   -0.0,   -0.1,   -0.0,    0.0,   -0.1,   -0.1,  999.0,  999.0,  999.0,  999.0,  999.0,  999.0,    0.0,  999.0,  999.0,  999.0,  999.0,  999.0,  999.0,  999.0,  999.0,  999.0,  999.0,  999.0,  999.0,  999.0,  999.0,  999.0,  999.0,  999.0,  999.0,  999.0,   -0.1,  999.0,    0.2,    0.0,  999.0,  999.0,  999.0,  999.0,  999.0,  999.0
2010/12/08 03:30,  999.0,    5.0,    5.8,    6.9,    8.3,    8.6,    8.6,    8.9,    9.3,    9.7,   10.4,   10.7,   11.6,   11.6,    9.1,    8.2,    6.6,    4.5,    3.9,    3.8,    4.0,    4.5,    4.4,    3.7,    3.3,  999.0,    1.9,    1.3,    1.2,    1.1,    1.1,    1.7,    1.9,    1.4,    1.1,    1.1,    1.4,    0.4,    0.1,   -0.0,    0.6,    1.2,    0.9,    0.1,   -0.7,   -2.7,  999.0,   -0.3,   -0.6,   -0.2,   -0.1,   -0.0,   -0.2,   -0.0,    0.0,   -0.0,    0.0,   -0.1,   -0.0,   -0.1,   -0.1,   -0.1,  999.0,    0.0,  999.0,  999.0,  999.0,  999.0,  999.0,  999.0,  999.0,  999.0,  999.0,  999.0,  999.0,  999.0,  999.0,  999.0,  999.0,  999.0,  999.0,  999.0,  999.0,  999.0,  999.0,  999.0,  999.0,  999.0,  999.0,  999.0,  999.0,  999.0,  999.0,  999.0,  999.0,  999.0,  999.0,  999.0
2010/12/08 03:40,  999.0,    5.2,    6.1,    7.3,    8.0,    8.2,    8.1,    8.7,    9.5,    9.7,    9.9,   10.2,   10.7,   11.3,    9.9,    8.7,    7.9,    4.6,    4.0,    3.7,    4.1,    4.2,    3.5,    3.0,    2.6,    2.7,    1.6,    1.4,    1.2,    1.1,    1.6,    2.3,    2.0,    1.5,    1.3,    1.4,    0.9,    0.6,    0.1,   -0.0,    0.8,    0.8,    0.5,    0.1,   -0.7,   -2.3,   -3.0,   -0.2,   -0.2,   -0.4,   -0.2,   -0.1,   -0.0,   -0.1,   -0.1,   -0.2,   -0.0,   -0.1,   -0.0,   -0.1,   -0.4,    0.1,  999.0,  999.0,  999.0,  999.0,  999.0,  999.0,  999.0,  999.0,  999.0,  999.0,  999.0,  999.0,  999.0,  999.0,  999.0,  999.0,  999.0,  999.0,  999.0,  999.0,  999.0,  999.0,  999.0,  999.0,  999.0,  999.0,  999.0,  999.0,  999.0,  999.0,  999.0,  999.0,  999.0,  999.0,  999.0,  999.0
2010/12/08 03:50,  999.0,    4.8,    5.0,    6.6,    7.4,    7.6,    8.2,    8.5,    9.0,    9.1,    9.1,   10.1,   11.1,  999.0,  999.0,    8.7,    7.1,    5.5,    3.8,    3.8,    3.9,    4.0,    3.5,    2.6,    2.5,    2.2,    1.8,  999.0,    1.6,    1.7,    2.2,    2.7,    2.1,  999.0,    1.8,    1.9,    1.5,    0.9,    0.5,    0.2,    1.3,    1.3,    0.6,   -0.1,   -0.8,   -2.5,   -2.7,   -0.1,   -0.1,   -0.1,   -0.5,   -0.2,   -0.0,   -0.1,   -0.2,   -0.1,    0.1,   -0.0,    0.0,   -0.2,   -0.1,   -0.1,  999.0,  999.0,  999.0,  999.0,  999.0,  999.0,  999.0,  999.0,  999.0,  999.0,  999.0,  999.0,  999.0,  999.0,  999.0,  999.0,  999.0,  999.0,  999.0,  999.0,  999.0,  999.0,  999.0,  999.0,  999.0,  999.0,  999.0,  999.0,  999.0,  999.0,  999.0,  999.0,  999.0,  999.0,  999.0,  999.0
2010/12/08 04:00,  999.0,  999.0,  999.0,    7.3,    7.6,    8.1,    8.3,    8.5,    8.7,    8.7,    9.0,    9.9,  999.0,  999.0,  999.0,  999.0,    7.5,    5.7,    4.8,    4.1,    4.0,    3.6,    3.2,    2.7,    2.5,    2.5,    2.3,    1.8,    1.6,    1.4,    2.2,    2.9,    2.3,    2.1,    2.2,    2.0,    2.0,    0.7,    0.2,    0.1,    1.1,    1.3,    0.8,   -0.3,   -0.9,   -2.2,   -2.5,   -0.5,   -0.3,   -0.1,   -0.2,   -0.0,   -0.0,   -0.0,   -0.0,   -0.3,   -0.0,    0.1,   -0.0,   -0.1,   -0.3,    0.0,  999.0,  999.0,  999.0,  999.0,  999.0,  999.0,  999.0,  999.0,  999.0,  999.0,  999.0,  999.0,  999.0,  999.0,  999.0,  999.0,  999.0,  999.0,  999.0,  999.0,  999.0,  999.0,  999.0,  999.0,  999.0,  999.0,  999.0,  999.0,  999.0,  999.0,  999.0,  999.0,  999.0,  999.0,  999.0,  999.0
2010/12/08 04:10,  999.0,  999.0,    6.6,    7.3,    8.2,    8.7,    8.9,    8.8,    8.8,    8.5,    8.7,    9.3,   10.1,  999.0,  999.0,  999.0,    8.6,    5.9,    5.4,    5.1,    4.8,    4.2,    3.2,    2.7,    3.3,    3.0,    2.4,    2.0,    1.4,    1.4,    2.0,    2.6,    2.4,    2.1,    2.2,    1.8,    1.5,    0.7,    0.4,    0.1,    0.3,    0.1,    0.3,   -0.2,   -1.0,   -2.0,   -2.3,   -1.3,   -0.2,   -0.1,   -0.3,   -0.3,   -0.2,   -0.1,   -0.2,   -0.0,    0.0,   -0.0,   -0.0,   -0.0,   -0.0,    0.1,  999.0,  999.0,  999.0,  999.0,  999.0,  999.0,  999.0,  999.0,  999.0,  999.0,  999.0,  999.0,  999.0,  999.0,  999.0,  999.0,  999.0,  999.0,  999.0,  999.0,  999.0,  999.0,  999.0,  999.0,  999.0,  999.0,  999.0,  999.0,  999.0,  999.0,  999.0,  999.0,  999.0,  999.0,  999.0,  999.0
2010/12/08 04:20,    4.7,    5.8,    6.6,    7.5,    8.3,    9.0,    9.5,    9.5,    9.7,    9.4,    8.9,    9.0,   10.0,   11.1,  999.0,  999.0,    8.9,    6.5,    5.4,    5.1,    4.6,    3.7,    2.8,    2.7,    3.4,    2.9,    2.1,    1.9,    1.3,    1.8,    2.5,    2.9,    2.5,    2.1,    2.1,    1.8,    1.8,    1.3,    0.4,    0.1,    0.1,    0.1,   -0.3,   -0.6,   -0.8,   -1.5,   -1.3,   -0.9,   -0.3,   -0.4,   -0.5,   -0.3,   -0.2,   -0.4,   -0.3,   -0.0,    0.1,   -0.1,    0.1,   -0.1,   -0.0,   -0.1,  999.0,  999.0,  999.0,  999.0,  999.0,  999.0,  999.0,  999.0,  999.0,  999.0,  999.0,  999.0,  999.0,  999.0,  999.0,  999.0,  999.0,  999.0,  999.0,  999.0,  999.0,  999.0,  999.0,  999.0,  999.0,  999.0,    0.1,  999.0,  999.0,   -0.1,  999.0,  999.0,  999.0,  999.0,  999.0,  999.0
2010/12/08 04:30,    4.8,    6.2,    7.0,    7.9,    8.8,    9.5,    9.5,    9.5,    9.5,    9.3,    8.6,    8.8,    9.7,   10.8,   11.6,   10.6,   10.1,    7.8,    5.9,    5.1,    4.7,    4.0,    3.3,    2.9,    3.4,    3.5,    2.8,    2.6,    2.1,    2.2,    2.9,    3.2,    3.0,    2.9,    3.0,    2.9,    2.9,    2.1,    1.1,    0.9,    0.3,    0.3,   -0.2,   -0.5,   -0.2,   -0.9,   -1.3,   -1.1,   -0.2,   -0.1,   -0.6,   -0.6,   -0.2,   -0.7,   -0.2,   -0.2,   -0.1,   -0.0,   -0.0,   -0.2,   -0.1,   -0.0,   -0.1,    0.0,  999.0,    0.0,  999.0,  999.0,  999.0,  999.0,  999.0,  999.0,  999.0,  999.0,  999.0,  999.0,  999.0,  999.0,  999.0,  999.0,  999.0,  999.0,  999.0,  999.0,  999.0,  999.0,  999.0,  999.0,   -0.0,  999.0,  999.0,  999.0,  999.0,  999.0,  999.0,  999.0,  999.0,  999.0
2010/12/08 04:40,  999.0,    6.5,    7.2,    7.7,    8.4,    9.1,    9.2,    9.7,    9.5,    9.3,    9.0,    8.7,    9.7,   10.4,   11.1,   10.6,    9.8,    8.1,    5.9,    5.0,    4.5,    3.6,    2.8,    2.5,    3.1,    3.1,    1.9,    1.9,    1.3,    2.0,    2.5,    2.8,    2.7,    2.9,    2.9,    2.7,    2.2,    1.8,    1.1,    0.6,   -0.0,   -0.2,   -0.3,   -0.7,   -0.2,   -1.1,   -1.3,   -1.2,   -0.2,   -0.4,   -1.2,   -0.6,   -1.0,   -1.1,   -0.4,   -0.1,    0.0,   -0.0,   -0.1,   -0.1,   -0.0,   -0.2,  999.0,  999.0,  999.0,  999.0,  999.0,  999.0,  999.0,  999.0,  999.0,  999.0,  999.0,  999.0,  999.0,  999.0,  999.0,  999.0,  999.0,  999.0,  999.0,  999.0,  999.0,  999.0,  999.0,  999.0,  999.0,  999.0,  999.0,  999.0,  999.0,  999.0,  999.0,  999.0,  999.0,  999.0,  999.0,  999.0
2010/12/08 04:50,  999.0,    6.3,    7.0,    7.5,    8.1,    8.7,    9.2,    9.5,    9.5,    9.6,    9.8,   10.4,   10.9,   11.1,   11.4,   10.2,    8.9,    7.9,    6.2,    5.3,    4.9,    3.7,    3.0,    2.8,    3.0,    2.7,    1.5,    1.2,    1.4,    1.9,    2.4,    2.6,    3.0,    3.0,    3.1,    2.9,    2.4,    1.8,    1.0,    0.7,    0.3,    0.2,   -0.3,   -0.4,   -0.1,   -0.7,   -0.6,   -0.3,   -0.0,   -0.2,   -1.5,   -1.9,   -1.1,   -0.7,   -0.2,   -0.1,   -0.1,    0.0,   -0.0,   -0.0,    0.0,   -0.0,  999.0,  999.0,  999.0,    0.1,  999.0,  999.0,  999.0,  999.0,  999.0,  999.0,  999.0,  999.0,  999.0,  999.0,  999.0,  999.0,  999.0,  999.0,  999.0,  999.0,  999.0,  999.0,  999.0,  999.0,  999.0,  999.0,    0.1,  999.0,  999.0,  999.0,  999.0,  999.0,  999.0,  999.0,  999.0,  999.0
2010/12/08 05:00,  999.0,  999.0,    6.9,    7.6,    7.9,    8.2,    8.4,    8.4,    8.2,    8.3,    9.0,    9.2,   10.2,   11.4,   12.1,   11.2,  999.0,    7.1,    6.0,    5.1,    4.5,    3.8,    3.3,    2.8,    3.0,    2.7,    1.4,    0.9,    1.0,    1.4,    1.8,    2.1,    2.5,    2.5,    2.5,    1.9,    1.6,    1.2,    0.0,    0.3,    0.4,   -0.2,   -0.7,   -0.8,   -0.3,   -0.6,   -0.3,    0.1,    0.2,   -0.1,   -0.8,   -0.7,   -0.7,   -0.4,   -0.5,   -0.1,    0.0,   -0.0,   -0.1,   -0.1,   -0.1,   -0.1,  999.0,  999.0,    0.0,  999.0,  999.0,  999.0,  999.0,  999.0,  999.0,  999.0,  999.0,  999.0,  999.0,  999.0,  999.0,  999.0,  999.0,  999.0,  999.0,  999.0,  999.0,  999.0,  999.0,  999.0,  999.0,  999.0,  999.0,  999.0,  999.0,  999.0,  999.0,  999.0,  999.0,  999.0,  999.0,  999.0
2010/12/08 05:10,  999.0,  999.0,  999.0,    6.6,    7.2,    8.2,    8.4,    6.8,    8.3,    9.0,    7.4,   11.1,   11.1,   11.4,    8.8,    8.1,    8.7,  999.0,    6.4,    5.7,    4.3,    4.2,    3.2,    2.8,    3.1,    2.9,    1.9,    1.4,    1.4,    1.9,    2.4,    2.0,    2.3,    2.2,    2.1,    1.7,    1.2,    1.1,   -0.1,    0.3,    0.2,   -0.3,   -1.2,   -1.0,   -0.2,   -0.5,   -0.6,   -0.2,   -0.0,    0.1,   -0.2,   -0.5,   -0.2,   -0.2,   -0.4,   -0.2,   -0.2,    0.0,   -0.0,   -0.1,   -0.0,    0.0,  999.0,  999.0,  999.0,  999.0,  999.0,  999.0,  999.0,  999.0,  999.0,  999.0,  999.0,  999.0,  999.0,  999.0,  999.0,  999.0,  999.0,  999.0,  999.0,  999.0,  999.0,  999.0,  999.0,  999.0,  999.0,  999.0,   -0.1,  999.0,  999.0,  999.0,  999.0,  999.0,  999.0,  999.0,  999.0,  999.0
2010/12/08 05:20,    5.0,    6.5,    7.2,    7.9,    7.9,    8.0,    9.4,   10.0,   10.3,    8.7,    8.6,    9.8,   10.7,   10.3,    8.9,    7.3,    7.3,    8.6,    7.9,    8.6,    6.2,    5.3,    4.8,    3.8,    3.3,    2.7,    1.6,    1.1,    1.3,    1.3,    1.5,    1.7,    1.8,    2.0,    1.7,    1.7,    1.4,    0.7,    0.3,    0.0,   -0.1,   -0.2,   -0.4,   -0.8,   -0.1,   -0.3,   -0.3,    0.0,    0.1,   -0.1,   -0.1,   -0.7,   -0.0,   -0.0,   -0.2,   -0.2,   -0.1,    0.0,   -0.1,   -0.2,   -0.0,   -0.0,    0.1,  999.0,  999.0,    0.2,  999.0,  999.0,  999.0,  999.0,  999.0,  999.0,  999.0,  999.0,  999.0,  999.0,  999.0,  999.0,  999.0,  999.0,  999.0,  999.0,  999.0,  999.0,  999.0,  999.0,  999.0,  999.0,   -0.0,  999.0,  999.0,  999.0,  999.0,  999.0,   -0.3,  999.0,  999.0,   -0.1
2010/12/08 05:30,  999.0,  999.0,  999.0,    7.0,  999.0,    7.7,  999.0,  999.0,  999.0,    8.7,    8.4,  999.0,    9.8,    9.6,    8.7,    8.3,    7.8,    7.1,    6.5,    5.2,    4.4,    3.7,    2.9,    2.8,    3.2,    2.3,    1.7,    1.1,    1.5,  999.0,    1.8,    1.9,    2.0,    1.9,    1.4,    1.5,    1.1,    0.5,    0.5,    0.3,    0.1,    0.2,    0.0,   -0.1,   -0.0,    0.1,    0.4,    0.4,    0.2,   -0.2,   -0.7,   -0.2,   -0.2,   -1.2,   -0.4,   -0.1,   -0.0,   -0.1,   -0.1,    0.0,   -0.0,   -0.1,    0.1,    0.1,  999.0,  999.0,  999.0,  999.0,    0.2,    0.0,  999.0,  999.0,  999.0,  999.0,  999.0,  999.0,  999.0,  999.0,  999.0,  999.0,  999.0,  999.0,  999.0,  999.0,  999.0,  999.0,  999.0,    0.0,  999.0,  999.0,  999.0,  999.0,  999.0,  999.0,  999.0,  999.0,  999.0,   -0.1
2010/12/08 05:40,    5.6,    6.1,    6.5,    6.6,    6.7,    7.1,    7.6,    7.8,    8.2,    8.3,    7.4,    8.1,    8.5,    8.9,    9.2,    9.1,    8.3,    7.3,    6.6,    5.7,    5.6,    4.3,    3.6,    3.5,    3.5,    3.4,    2.0,    1.6,    1.8,    2.5,    2.3,    2.3,    2.5,    2.5,    2.3,    2.5,    2.6,    1.7,    1.3,    0.9,    0.7,    0.6,    0.1,   -0.1,    0.1,    0.4,    0.7,    0.2,    0.1,   -0.1,   -0.3,    0.0,   -0.1,   -0.3,   -0.3,   -0.0,   -0.0,    0.1,   -0.0,    0.0,    0.1,    0.0,   -0.1,   -0.1,  999.0,  999.0,  999.0,   -0.2,  999.0,  999.0,  999.0,  999.0,  999.0,  999.0,  999.0,  999.0,  999.0,  999.0,  999.0,  999.0,  999.0,  999.0,  999.0,  999.0,  999.0,  999.0,  999.0,   -0.1,  999.0,  999.0,  999.0,  999.0,    0.1,  999.0,  999.0,  999.0,  999.0,    0.1
2010/12/08 05:50,  999.0,    5.1,    6.3,    6.9,    7.6,    8.4,    8.9,    8.8,    8.5,    7.5,    7.1,    7.5,    7.2,    7.4,    7.7,    7.7,    7.0,    6.3,    5.4,    4.9,    4.2,    3.6,    2.9,    2.4,    2.3,    2.1,    1.4,    1.2,    1.7,    2.1,    1.7,    2.2,    2.7,    3.1,    2.8,    3.1,    2.7,    2.1,    1.9,    1.4,    1.0,    0.8,    0.5,    0.1,    0.3,    1.6,    1.8,    0.6,    0.0,   -0.1,   -0.3,   -0.3,   -0.0,   -0.4,   -0.2,    0.0,   -0.1,    0.0,    0.0,   -0.0,   -0.1,    0.1,   -0.1,  999.0,   -0.1,  999.0,  999.0,  999.0,    0.0,  999.0,  999.0,  999.0,  999.0,  999.0,  999.0,  999.0,  999.0,  999.0,  999.0,  999.0,  999.0,  999.0,  999.0,  999.0,  999.0,  999.0,  999.0,    0.0,  999.0,  999.0,  999.0,   -0.1,  999.0,  999.0,  999.0,  999.0,  999.0,  999.0
2010/12/08 06:00,  999.0,    5.8,    6.8,    7.3,    8.0,    8.2,    8.6,    8.2,    7.4,    6.9,    6.8,    6.9,    7.3,    7.9,    8.8,  999.0,    7.2,    6.3,    5.5,    4.7,    4.5,    4.2,    3.6,    2.8,    3.0,    2.8,    1.8,    1.7,    2.2,    2.4,    2.4,    2.7,    3.0,    3.3,    3.1,    3.2,    2.1,    1.7,    1.2,    0.7,    0.7,    0.6,    0.2,    0.1,    0.5,    1.6,    1.8,    1.2,    0.5,    0.4,   -0.1,   -0.3,   -0.5,   -0.2,   -0.3,   -0.1,    0.0,    0.0,   -0.0,   -0.1,   -0.1,    0.1,  999.0,  999.0,  999.0,  999.0,  999.0,  999.0,  999.0,  999.0,  999.0,  999.0,  999.0,  999.0,  999.0,  999.0,  999.0,  999.0,  999.0,  999.0,  999.0,  999.0,  999.0,  999.0,  999.0,  999.0,  999.0,   -0.0,   -0.0,  999.0,  999.0,  999.0,  999.0,  999.0,  999.0,  999.0,  999.0,  999.0
2010/12/08 06:10,  999.0,    6.7,    7.2,    7.5,    7.7,    7.5,    6.7,    6.3,    6.2,    6.6,    7.1,    7.4,    7.5,    7.8,  999.0,  999.0,  999.0,    5.6,    5.3,    4.5,    4.3,    4.0,    3.9,    3.3,    3.7,    3.4,    2.6,    2.4,    2.6,    2.8,    3.1,    3.4,    3.5,    3.5,    3.6,    3.1,    2.0,    1.5,    0.7,    0.2,    0.5,    0.4,    0.2,    0.2,    0.5,    0.9,    1.2,    1.2,    0.5,    0.3,    0.0,   -0.2,   -1.0,   -0.7,   -0.7,   -0.2,   -0.0,   -0.0,   -0.1,   -0.1,   -0.1,    0.1,  999.0,   -0.1,  999.0,    0.0,  999.0,  999.0,  999.0,  999.0,  999.0,  999.0,  999.0,  999.0,  999.0,  999.0,  999.0,  999.0,  999.0,  999.0,  999.0,  999.0,  999.0,  999.0,  999.0,  999.0,  999.0,  999.0,   -0.0,  999.0,  999.0,  999.0,  999.0,  999.0,  999.0,  999.0,  999.0,  999.0
2010/12/08 06:20,  999.0,    6.2,    7.1,    7.3,    6.7,    6.4,    6.6,    7.1,    7.5,    8.0,    8.3,    8.1,    8.0,    7.8,    8.3,  999.0,  999.0,  999.0,    5.8,    5.5,    4.9,    5.1,    4.8,    4.6,    4.7,    4.8,    3.7,    3.1,    2.8,    3.0,    3.2,    3.5,    3.7,    3.8,    3.6,    3.2,    2.5,    2.1,    1.6,    0.5,    0.7,    0.0,   -0.2,    0.1,    0.2,    0.9,    1.4,    1.5,    0.6,    0.2,    0.0,    0.0,   -1.4,   -0.9,   -1.4,   -0.3,   -0.2,   -0.1,    0.0,   -0.2,   -0.1,   -0.0,    0.0,  999.0,  999.0,   -0.1,  999.0,  999.0,  999.0,  999.0,  999.0,  999.0,  999.0,  999.0,  999.0,  999.0,  999.0,  999.0,  999.0,  999.0,  999.0,  999.0,  999.0,  999.0,  999.0,  999.0,  999.0,  999.0,  999.0,  999.0,  999.0,  999.0,  999.0,  999.0,  999.0,  999.0,  999.0,  999.0
2010/12/08 06:30,    3.8,    3.9,    5.1,    6.4,    6.3,    7.0,    7.6,    8.0,    8.8,    8.9,    8.6,    8.0,    7.6,    7.7,    7.8,    7.6,    8.4,  999.0,    6.5,    5.6,    5.2,    5.1,    5.0,    5.1,    5.2,    5.1,    3.8,    3.5,    2.9,    2.7,    2.5,    2.9,    3.1,    3.0,    3.0,    2.5,    1.8,    1.1,    0.9,    0.1,   -0.6,   -0.4,  999.0,    0.0,   -0.2,    0.1,    0.5,    0.1,   -0.1,   -0.6,   -0.5,   -0.7,  999.0,   -0.5,  999.0,   -0.1,   -0.1,   -0.0,   -0.1,   -0.1,   -0.0,   -0.0,  999.0,  999.0,  999.0,    0.0,   -0.2,  999.0,  999.0,  999.0,  999.0,  999.0,  999.0,  999.0,  999.0,  999.0,  999.0,  999.0,  999.0,  999.0,  999.0,  999.0,  999.0,  999.0,  999.0,  999.0,  999.0,  999.0,  999.0,  999.0,  999.0,  999.0,  999.0,  999.0,  999.0,  999.0,  999.0,  999.0
2010/12/08 06:40,  999.0,    4.1,    4.4,    5.6,    5.8,    7.3,    7.7,    8.4,    8.6,    8.8,    8.8,    7.9,    7.7,    7.3,    7.0,    7.3,    7.5,    7.7,    5.4,    4.3,    4.3,    4.1,    3.9,    4.0,    4.0,    4.2,    3.6,    2.6,    2.4,    1.7,    2.0,    2.3,    2.7,    2.7,    2.5,    2.1,    1.7,    1.1,    0.7,   -0.2,   -0.6,   -0.6,    0.2,    0.1,   -0.0,    0.4,    0.6,    0.6,    0.7,    0.3,    0.2,   -0.5,   -0.6,   -0.2,   -0.1,   -0.4,   -0.3,   -0.0,   -0.1,   -0.2,   -0.0,   -0.1,  999.0,   -0.1,  999.0,   -0.0,  999.0,  999.0,  999.0,  999.0,  999.0,  999.0,  999.0,  999.0,  999.0,  999.0,  999.0,  999.0,  999.0,  999.0,  999.0,  999.0,  999.0,  999.0,  999.0,  999.0,  999.0,  999.0,  999.0,  999.0,  999.0,  999.0,  999.0,  999.0,  999.0,  999.0,  999.0,  999.0
2010/12/08 06:50,    2.4,    3.6,    5.0,    5.5,    6.9,    7.8,    8.4,    8.7,    8.6,    9.0,    9.2,    9.0,    8.7,    8.1,    7.5,    7.4,    7.1,    6.9,    5.9,    4.6,    4.3,    4.3,    4.4,    4.4,    4.2,    4.5,    3.7,    3.0,    2.5,    2.4,    2.2,    2.4,    2.6,  999.0,    2.4,    2.2,    1.7,    0.9,    0.4,  999.0,   -1.0,   -0.9,   -0.5,   -0.5,   -0.4,   -0.1,    0.2,    0.6,    0.4,    0.3,    0.3,   -0.4,   -0.6,   -0.5,   -0.4,   -0.4,   -0.2,   -0.1,   -0.1,   -0.2,   -0.0,    0.0,  999.0,  999.0,  999.0,  999.0,  999.0,  999.0,  999.0,  999.0,  999.0,  999.0,  999.0,  999.0,  999.0,  999.0,  999.0,  999.0,  999.0,  999.0,  999.0,  999.0,  999.0,  999.0,  999.0,  999.0,  999.0,  999.0,    0.1,  999.0,  999.0,  999.0,  999.0,  999.0,  999.0,  999.0,  999.0,  999.0
2010/12/08 07:00,  999.0,  999.0,  999.0,  999.0,    6.7,    7.6,    8.1,    8.7,    8.7,    8.8,    9.5,    9.5,    9.3,    8.4,    7.8,    6.9,    6.6,    6.5,    5.2,    3.8,    3.9,    3.4,    3.5,    3.5,    3.3,    3.5,    3.1,    2.5,    2.4,    2.5,    2.4,    2.5,    2.8,    2.4,    2.2,    1.9,    1.7,    0.6,   -0.2,  999.0,   -1.2,   -0.6,   -0.3,   -0.4,   -0.2,   -0.4,    0.1,   -0.1,   -0.1,   -0.0,   -0.3,   -0.8,   -0.8,   -0.2,   -0.2,   -0.4,   -0.1,   -0.2,   -0.4,   -0.1,    0.0,   -0.1,  999.0,  999.0,   -0.1,    0.3,  999.0,  999.0,  999.0,  999.0,  999.0,  999.0,  999.0,  999.0,  999.0,  999.0,  999.0,  999.0,  999.0,  999.0,  999.0,  999.0,  999.0,  999.0,  999.0,  999.0,  999.0,   -0.1,    0.0,  999.0,  999.0,  999.0,  999.0,  999.0,  999.0,  999.0,  999.0,  999.0
2010/12/08 07:10,  999.0,  999.0,    4.9,    5.2,    6.6,    7.6,    8.4,    8.8,    8.4,    8.2,    8.4,    8.5,    7.7,    7.4,    7.3,    6.9,    6.2,    5.8,    4.9,    4.5,    4.5,    4.0,    3.8,    3.6,    3.5,    3.8,    3.3,    2.6,    2.8,    2.7,    2.3,    2.4,    2.7,    2.6,    2.5,    2.4,    2.0,    1.1,    0.4,    0.0,   -0.3,   -0.1,   -0.0,   -0.2,   -0.0,    0.2,    0.1,    0.3,    0.0,   -0.2,   -0.2,   -1.0,   -1.3,   -0.7,   -0.1,   -0.3,   -0.0,   -0.2,   -0.2,    0.0,    0.0,   -0.2,  999.0,  999.0,  999.0,  999.0,    0.1,  999.0,  999.0,  999.0,  999.0,  999.0,  999.0,  999.0,  999.0,  999.0,  999.0,  999.0,  999.0,  999.0,  999.0,  999.0,  999.0,  999.0,  999.0,  999.0,  999.0,  999.0,  999.0,  999.0,  999.0,  999.0,   -0.0,  999.0,  999.0,  999.0,  999.0,   -0.3
2010/12/08 07:20,  999.0,    3.7,    4.5,    4.9,    5.4,    6.1,    7.0,    7.7,    8.1,    7.9,    7.5,    6.5,    7.2,    7.2,    6.8,    6.9,    6.5,    6.0,    5.8,  999.0,    4.8,    4.0,    2.8,    2.9,    3.3,    3.2,    2.4,    2.5,    2.8,    3.0,    2.3,    2.2,    3.0,  999.0,    2.6,    2.4,    1.8,    0.7,    0.2,   -0.1,   -0.2,   -0.1,   -0.2,   -0.2,   -0.1,   -0.1,   -0.2,   -0.4,   -0.5,   -0.6,   -0.2,   -0.5,   -1.7,   -1.4,   -1.3,   -0.5,   -0.1,   -0.1,   -0.1,   -0.1,   -0.2,   -0.2,  999.0,  999.0,  999.0,  999.0,   -0.1,  999.0,  999.0,   -0.2,  999.0,  999.0,  999.0,  999.0,  999.0,  999.0,  999.0,  999.0,  999.0,  999.0,  999.0,  999.0,  999.0,  999.0,  999.0,  999.0,  999.0,  999.0,  999.0,  999.0,  999.0,  999.0,   -0.1,  999.0,   -0.1,  999.0,  999.0,  999.0
2010/12/08 07:30,  999.0,    1.3,  999.0,    3.4,    4.8,    6.2,    7.1,    7.1,    7.2,    7.6,    6.8,    6.7,    7.7,    8.7,    9.0,    8.3,    7.1,    6.5,  999.0,  999.0,  999.0,    3.8,    2.5,    2.8,    2.8,    3.1,    3.1,    3.1,    2.7,    2.7,    2.2,    2.1,    2.7,    2.8,    2.1,    2.2,    1.0,    0.4,   -0.1,    0.0,   -0.1,   -0.1,   -0.2,   -0.2,   -0.2,   -0.0,    0.2,   -0.1,   -0.2,   -0.4,   -0.2,   -0.3,   -3.1,  999.0,   -3.2,   -1.0,   -0.1,   -0.0,   -0.2,   -0.3,   -0.0,   -0.1,  999.0,  999.0,  999.0,  999.0,    0.1,    0.2,  999.0,   -0.1,  999.0,  999.0,  999.0,  999.0,  999.0,  999.0,  999.0,  999.0,  999.0,  999.0,  999.0,  999.0,  999.0,  999.0,  999.0,  999.0,  999.0,  999.0,    0.2,  999.0,  999.0,    0.1,  999.0,  999.0,  999.0,  999.0,  999.0,  999.0
2010/12/08 07:40,    0.9,  999.0,    1.3,    3.0,    4.1,    5.5,    6.6,    6.8,    7.5,    7.9,    8.6,    8.3,    8.3,    9.0,    8.9,    8.6,    7.1,    7.2,  999.0,  999.0,  999.0,    4.5,    4.1,    3.2,    2.8,    3.2,  999.0,  999.0,    2.8,    3.1,    3.0,    2.8,    3.0,    3.3,    3.1,    2.8,    1.8,    1.2,    0.4,    0.5,    0.2,    0.0,    0.0,   -0.5,   -0.4,   -0.2,   -0.2,   -0.2,   -0.4,   -1.1,   -1.5,   -1.5,   -3.1,   -4.3,   -3.2,   -2.0,   -0.8,   -0.0,   -0.1,   -0.0,   -0.1,   -0.1,  999.0,   -0.0,    0.1,   -0.3,  999.0,  999.0,  999.0,  999.0,  999.0,  999.0,  999.0,  999.0,   -0.0,  999.0,  999.0,  999.0,  999.0,  999.0,  999.0,  999.0,  999.0,  999.0,  999.0,  999.0,  999.0,  999.0,  999.0,   -0.0,    0.0,   -0.0,    0.2,  999.0,  999.0,  999.0,  999.0,  999.0
2010/12/08 07:50,  999.0,  999.0,  999.0,  999.0,  999.0,  999.0,  999.0,  999.0,  999.0,    4.0,    5.8,  999.0,  999.0,  999.0,  999.0,    6.3,  999.0,    6.0,  999.0,    4.8,    4.0,    3.0,    3.6,    4.1,    3.3,    4.1,    3.7,    3.7,    4.2,    4.0,    3.3,    3.1,    2.9,    2.1,    2.1,    2.3,    2.8,    0.5,    0.3,    0.5,    0.2,   -0.0,   -0.1,   -0.3,   -0.5,   -0.1,   -0.1,   -0.1,   -0.2,   -0.7,   -1.3,   -1.3,   -2.9,   -3.7,   -1.8,   -1.1,   -1.0,   -0.2,   -0.1,   -0.2,    0.1,   -0.3,   -0.1,  999.0,  999.0,  999.0,   -0.0,  999.0,  999.0,  999.0,  999.0,  999.0,  999.0,  999.0,  999.0,  999.0,  999.0,  999.0,  999.0,  999.0,  999.0,  999.0,  999.0,  999.0,  999.0,  999.0,  999.0,  999.0,  999.0,  999.0,  999.0,  999.0,  999.0,  999.0,  999.0,  999.0,  999.0,  999.0
2010/12/08 08:00,    5.1,    5.3,    5.7,    6.3,    7.4,    8.2,    8.7,    7.8,    5.4,    6.0,    6.1,    7.2,    7.5,    7.6,    7.5,    7.2,    7.1,    6.9,    6.2,    5.4,    4.7,    4.3,    4.0,    3.5,    3.2,    3.3,    3.3,    3.5,    2.8,    2.7,    2.6,    2.7,    2.8,  999.0,    2.5,    2.5,    2.4,    1.6,    0.6,    0.3,    0.2,   -0.1,   -0.1,   -0.4,   -0.6,   -1.4,   -0.6,   -0.6,   -0.5,   -0.7,   -1.9,   -1.8,  999.0,   -1.8,   -1.9,   -0.8,   -0.4,    0.1,   -0.0,   -0.0,   -0.1,   -0.0,  999.0,  999.0,  999.0,  999.0,  999.0,  999.0,  999.0,  999.0,  999.0,  999.0,  999.0,  999.0,  999.0,  999.0,  999.0,  999.0,  999.0,  999.0,  999.0,  999.0,  999.0,  999.0,  999.0,  999.0,  999.0,  999.0,  999.0,   -0.1,  999.0,  999.0,    0.2,  999.0,  999.0,  999.0,  999.0,  999.0
2010/12/08 08:10,    2.7,    4.6,    5.1,    6.3,    6.8,    7.3,    7.6,    6.6,    6.9,    7.6,    7.9,    8.6,    8.9,    9.0,    9.0,    8.6,    7.8,    7.2,    7.1,    6.9,    5.8,    4.9,    5.1,    4.9,    5.0,    5.0,    4.9,    4.2,    3.9,    3.8,    3.3,    3.8,    4.3,    3.8,    3.8,    3.5,    3.5,    2.8,    1.9,    0.8,    0.4,   -0.1,   -0.4,   -0.8,   -1.3,   -1.5,   -0.3,    0.0,   -0.3,   -0.6,   -1.1,   -1.3,  999.0,  999.0,   -0.0,   -0.2,   -0.3,   -0.2,   -0.1,   -0.1,   -0.1,    0.0,  999.0,  999.0,  999.0,    0.0,    0.0,  999.0,  999.0,  999.0,  999.0,  999.0,  999.0,  999.0,  999.0,  999.0,  999.0,  999.0,  999.0,  999.0,  999.0,  999.0,  999.0,  999.0,  999.0,  999.0,  999.0,   -0.1,   -0.1,  999.0,  999.0,  999.0,  999.0,  999.0,  999.0,  999.0,  999.0,  999.0
2010/12/08 08:20,  999.0,  999.0,  999.0,    5.9,  999.0,    7.4,    7.4,    7.0,    7.2,    7.3,    7.8,    8.2,    8.6,    8.7,    9.6,    9.9,   10.0,    9.2,    8.1,    7.5,    6.9,    5.3,    5.1,    5.1,    5.3,    5.2,    4.9,    4.4,    3.8,    3.6,    3.4,    3.7,    4.0,    3.5,    3.3,    2.9,    2.3,    2.1,    0.8,    0.3,    0.1,   -0.1,   -0.2,   -0.7,   -1.1,   -1.1,  999.0,   -0.1,   -0.4,   -0.6,   -0.7,   -1.7,  999.0,  999.0,   -1.2,   -0.3,   -0.6,   -0.3,    0.0,   -0.2,    0.0,   -0.1,  999.0,   -0.0,  999.0,  999.0,   -0.0,  999.0,  999.0,  999.0,  999.0,  999.0,  999.0,  999.0,  999.0,  999.0,  999.0,  999.0,  999.0,  999.0,  999.0,  999.0,  999.0,  999.0,  999.0,  999.0,  999.0,  999.0,  999.0,  999.0,  999.0,  999.0,  999.0,  999.0,  999.0,  999.0,  999.0,  999.0
2010/12/08 08:30,  999.0,    2.6,  999.0,  999.0,  999.0,    6.8,    7.2,    7.3,    7.1,    7.2,    7.5,    8.0,    8.0,    8.1,    8.9,    9.8,   10.8,   10.3,    9.5,    7.5,    6.7,    5.1,    5.0,    5.0,    5.5,    5.4,  999.0,  999.0,  999.0,    3.5,    3.8,    4.1,    3.9,    3.8,    3.4,    3.0,    2.8,    2.3,    1.4,  999.0,    0.8,    0.3,   -0.0,   -0.2,   -0.4,   -0.5,   -0.2,   -0.5,   -0.9,   -1.3,   -1.5,   -1.4,   -1.5,   -1.2,   -0.9,   -0.2,   -0.1,   -0.1,   -0.3,   -0.1,   -0.0,    0.0,  999.0,    0.1,  999.0,   -0.0,  999.0,  999.0,  999.0,  999.0,  999.0,  999.0,  999.0,  999.0,  999.0,  999.0,  999.0,  999.0,  999.0,  999.0,  999.0,  999.0,  999.0,  999.0,  999.0,  999.0,  999.0,   -0.0,  999.0,    0.0,    0.0,  999.0,  999.0,  999.0,  999.0,  999.0,  999.0,  999.0
2010/12/08 08:40,    2.8,    3.0,    3.5,  999.0,    5.8,    6.6,    7.4,    7.2,    7.2,    7.4,    7.5,    7.6,    7.9,    8.2,    8.6,    9.6,   10.4,    8.3,    7.4,    6.1,    4.9,    4.5,    3.9,    4.0,    4.4,    4.7,  999.0,    4.1,    4.4,    4.7,    4.8,    4.9,    5.3,    5.4,    5.0,    4.2,    3.8,    2.5,    2.0,    2.7,    1.0,    0.5,    0.1,   -0.2,   -0.1,   -0.1,   -0.3,   -0.7,   -1.5,   -1.9,   -1.7,   -1.6,   -1.3,   -1.2,   -0.2,   -0.3,   -0.6,   -0.4,   -0.1,   -0.0,   -0.0,   -0.3,  999.0,  999.0,  999.0,  999.0,    0.1,  999.0,   -0.1,   -0.0,  999.0,  999.0,  999.0,  999.0,  999.0,  999.0,  999.0,  999.0,  999.0,  999.0,  999.0,  999.0,  999.0,  999.0,  999.0,  999.0,  999.0,    0.0,    0.0,   -0.1,    0.1,  999.0,  999.0,  999.0,  999.0,  999.0,  999.0,    0.1
2010/12/08 08:50,    1.8,    4.2,  999.0,    4.8,    6.1,    7.5,    7.6,    6.8,    6.8,    7.8,    8.1,    8.2,    8.3,    8.3,    8.5,  999.0,  999.0,  999.0,    7.5,    5.9,    4.7,  999.0,    4.0,    4.0,    4.2,    4.2,    3.6,    3.9,    4.2,    4.7,    4.3,    4.1,    4.3,    4.5,    3.3,    3.2,    3.4,    2.8,    2.2,    1.9,    1.4,    0.6,   -0.5,   -0.9,   -0.3,   -0.6,   -0.1,   -0.7,   -2.1,   -2.7,   -2.3,   -2.6,   -3.2,   -3.3,  999.0,   -0.3,   -0.4,   -0.2,    0.0,   -0.2,    0.0,   -0.1,  999.0,  999.0,  999.0,  999.0,  999.0,   -0.0,    0.1,  999.0,  999.0,  999.0,  999.0,  999.0,  999.0,  999.0,  999.0,  999.0,  999.0,  999.0,  999.0,  999.0,  999.0,  999.0,  999.0,  999.0,  999.0,  999.0,    0.1,    0.0,  999.0,  999.0,  999.0,  999.0,  999.0,  999.0,  999.0,  999.0
2010/12/08 09:00,    3.0,    3.7,  999.0,    4.8,    6.3,    7.4,    7.8,    8.0,  999.0,    8.2,  999.0,    8.5,    8.3,  999.0,    4.2,  999.0,    4.6,    4.0,  999.0,  999.0,  999.0,    4.8,    4.3,    4.1,    4.6,    4.4,  999.0,  999.0,    3.5,    3.8,    3.4,    3.3,    3.2,    3.2,    2.8,    2.6,    2.4,    2.2,    1.6,    2.3,    1.0,    0.4,   -0.2,   -0.4,   -0.2,   -0.6,   -0.3,   -0.5,   -2.2,   -2.3,   -1.9,   -1.0,   -1.5,   -1.8,   -0.4,   -0.6,   -0.3,   -0.1,   -0.0,   -0.2,    0.1,    0.1,    0.0,  999.0,  999.0,  999.0,  999.0,  999.0,   -0.1,  999.0,  999.0,  999.0,  999.0,  999.0,  999.0,  999.0,  999.0,  999.0,  999.0,  999.0,  999.0,  999.0,  999.0,  999.0,  999.0,  999.0,  999.0,  999.0,  999.0,  999.0,  999.0,  999.0,  999.0,  999.0,  999.0,  999.0,  999.0,  999.0
2010/12/08 09:10,  999.0,    1.5,    3.3,    3.9,    5.0,    6.2,    6.9,    6.9,    7.4,    7.5,    7.8,    7.9,    7.9,    8.4,    9.1,  999.0,  999.0,  999.0,  999.0,    6.5,  999.0,    5.1,    4.7,    4.6,    4.5,    4.9,    4.1,  999.0,    3.7,    3.9,    3.3,    3.4,    3.7,    3.6,    3.4,    2.9,    2.8,    2.6,  999.0,  999.0,    1.9,    0.7,    0.0,   -0.3,   -0.4,   -0.6,    0.6,   -0.2,   -1.4,   -1.9,   -1.6,   -0.3,   -0.3,   -0.3,   -0.3,   -0.3,   -0.1,   -0.1,   -0.0,   -0.1,   -0.1,   -0.1,  999.0,   -0.3,  999.0,    0.0,  999.0,  999.0,  999.0,  999.0,  999.0,  999.0,  999.0,  999.0,  999.0,  999.0,  999.0,  999.0,  999.0,  999.0,  999.0,  999.0,  999.0,  999.0,  999.0,  999.0,  999.0,  999.0,   -0.1,  999.0,    0.0,  999.0,  999.0,  999.0,  999.0,  999.0,  999.0,  999.0
2010/12/08 09:20,  999.0,    1.3,    1.4,    1.9,    3.6,    4.8,    5.8,    6.8,    7.2,    7.8,    8.0,    8.1,    8.6,    8.8,    9.6,   10.3,   11.4,   10.5,    9.4,    7.6,    6.9,  999.0,    5.2,  999.0,    5.0,    5.4,    4.9,  999.0,  999.0,  999.0,    4.9,    4.7,    4.9,    4.7,    4.6,  999.0,    3.8,    2.5,    1.6,    1.9,    1.7,    0.5,    0.1,   -0.1,   -0.3,   -0.2,    0.6,    0.0,   -1.1,   -1.2,   -0.8,   -0.4,   -0.3,   -0.6,   -0.4,   -0.1,    0.0,   -0.0,   -0.0,   -0.2,   -0.2,    0.1,  999.0,  999.0,    0.1,  999.0,  999.0,   -0.1,  999.0,  999.0,  999.0,  999.0,  999.0,  999.0,  999.0,  999.0,  999.0,  999.0,   -0.0,  999.0,  999.0,  999.0,  999.0,  999.0,  999.0,  999.0,  999.0,  999.0,  999.0,  999.0,   -0.1,  999.0,  999.0,  999.0,  999.0,    0.1,  999.0,  999.0
2010/12/08 09:30,  999.0,  999.0,  999.0,    2.0,    2.3,    4.5,    5.3,  999.0,  999.0,  999.0,    8.0,    9.0,    9.0,    8.8,    9.6,  999.0,   11.0,   10.7,    9.7,    8.4,    6.7,    6.5,    5.9,    5.7,    6.1,    6.0,    5.7,  999.0,    5.7,    4.9,    5.2,    5.6,    4.9,    4.9,    5.2,    4.4,    3.7,    2.8,    1.4,    2.2,    2.0,    0.2,   -0.2,   -0.6,   -0.3,   -0.9,   -0.4,   -0.8,   -1.2,   -0.8,   -0.3,   -0.2,   -0.2,   -0.2,   -0.5,   -0.2,   -0.1,   -0.1,   -0.1,   -0.3,   -0.1,   -0.0,  999.0,   -0.1,  999.0,  999.0,  999.0,  999.0,  999.0,  999.0,  999.0,  999.0,  999.0,  999.0,  999.0,  999.0,  999.0,  999.0,  999.0,  999.0,  999.0,  999.0,  999.0,  999.0,  999.0,  999.0,  999.0,  999.0,  999.0,   -0.0,    0.1,  999.0,  999.0,  999.0,  999.0,  999.0,  999.0,  999.0
2010/12/08 09:40,  999.0,    1.6,    2.8,  999.0,    2.4,    3.0,    4.5,  999.0,  999.0,  999.0,    6.6,    7.3,    7.4,    7.7,    8.4,    8.3,  999.0,   10.2,    8.8,    7.8,    6.8,    6.6,  999.0,    5.7,    6.1,    6.3,  999.0,  999.0,    5.4,    5.1,  999.0,    6.1,    5.3,    5.2,    4.5,  999.0,  999.0,    2.5,    1.6,  999.0,    2.2,    0.1,    0.0,   -0.0,   -0.2,   -0.3,   -0.2,   -0.3,   -0.7,   -0.5,   -0.1,   -0.0,   -0.1,   -0.2,   -0.2,   -0.3,   -0.2,   -0.0,   -0.1,   -0.3,   -0.3,   -0.1,  999.0,  999.0,  999.0,  999.0,  999.0,    0.1,    0.2,  999.0,  999.0,  999.0,  999.0,  999.0,  999.0,  999.0,  999.0,  999.0,  999.0,  999.0,  999.0,  999.0,  999.0,  999.0,  999.0,  999.0,  999.0,    0.2,   -0.1,  999.0,   -0.1,  999.0,  999.0,  999.0,  999.0,  999.0,  999.0,  999.0
2010/12/08 09:50,    2.8,    3.3,    3.8,    4.5,    4.7,    5.5,    5.9,    7.2,    5.7,    5.5,  999.0,  999.0,  999.0,    7.7,    8.4,   10.0,  999.0,  999.0,  999.0,  999.0,    6.0,  999.0,  999.0,  999.0,    6.3,  999.0,  999.0,  999.0,  999.0,    5.6,    5.4,    6.3,    5.7,    5.7,  999.0,    4.9,    3.9,    1.5,    1.1,    0.5,    0.9,    0.7,    0.4,    0.1,   -0.0,    0.0,    0.2,   -0.2,   -0.2,   -0.7,   -0.4,   -0.0,   -0.0,    0.0,   -0.0,    0.0,   -0.0,   -0.1,   -0.1,    0.0,   -0.0,    0.1,  999.0,  999.0,   -0.1,  999.0,    0.5,  999.0,  999.0,  999.0,  999.0,  999.0,  999.0,  999.0,  999.0,  999.0,  999.0,  999.0,  999.0,  999.0,  999.0,  999.0,  999.0,  999.0,  999.0,  999.0,  999.0,  999.0,  999.0,  999.0,  999.0,   -0.2,  999.0,  999.0,  999.0,  999.0,  999.0,  999.0
2010/12/08 10:00,  999.0,    3.4,  999.0,    2.8,    5.4,    6.3,    6.5,    6.6,    6.2,    6.5,    7.0,    6.7,    7.1,    7.0,    7.5,    6.1,  999.0,  999.0,  999.0,  999.0,  999.0,  999.0,  999.0,    4.1,    5.9,    5.6,  999.0,  999.0,  999.0,    4.8,    5.3,  999.0,    5.3,    5.4,    5.6,    4.9,    5.2,    1.8,    0.9,    0.5,    1.1,    0.6,    0.4,   -0.0,    0.0,   -0.0,   -0.2,   -0.7,   -0.7,   -0.5,   -0.2,   -0.1,   -0.1,   -0.4,   -0.2,   -0.1,   -0.1,    0.1,   -0.1,   -0.1,    0.0,   -0.1,    0.0,   -0.0,    0.1,    0.2,  999.0,  999.0,  999.0,  999.0,  999.0,  999.0,  999.0,  999.0,  999.0,  999.0,  999.0,  999.0,  999.0,  999.0,  999.0,  999.0,  999.0,  999.0,  999.0,  999.0,  999.0,  999.0,  999.0,  999.0,  999.0,  999.0,    0.1,  999.0,  999.0,  999.0,  999.0,  999.0
2010/12/08 10:10,  999.0,  999.0,    3.8,    5.5,    6.8,    7.3,    7.4,    6.9,    7.2,    7.4,    7.3,    7.3,    7.8,    8.2,    7.8,    7.4,  999.0,  999.0,    5.9,  999.0,  999.0,    3.3,    2.5,    3.3,    4.5,    4.5,  999.0,    3.7,    4.3,    4.4,    4.9,  999.0,    5.2,    5.1,    5.3,    4.8,    4.6,    3.2,    0.3,    1.0,    0.9,    0.7,   -0.0,   -0.4,   -0.1,   -0.1,   -0.0,   -0.3,   -0.6,   -0.5,   -0.2,   -0.1,   -0.5,   -0.5,   -0.4,    0.0,   -0.1,   -0.1,   -0.0,   -0.0,   -0.1,   -0.0,   -0.0,    0.1,  999.0,   -0.1,  999.0,  999.0,  999.0,  999.0,  999.0,  999.0,  999.0,  999.0,  999.0,  999.0,  999.0,  999.0,  999.0,  999.0,  999.0,  999.0,  999.0,  999.0,  999.0,  999.0,  999.0,  999.0,    0.1,  999.0,   -0.1,    0.2,  999.0,   -0.1,  999.0,  999.0,  999.0,    0.1
2010/12/08 10:20,  999.0,  999.0,  999.0,    5.4,    6.7,    7.1,    6.9,    0.5,    4.4,   -0.1,    8.9,    9.5,    8.8,    7.7,    8.4,    8.9,    7.3,    6.7,  999.0,  999.0,    7.7,  999.0,  999.0,  999.0,    5.9,    8.5,  999.0,    5.2,  999.0,    4.5,    6.4,  999.0,  999.0,  999.0,    5.3,    5.1,  999.0,    3.1,  999.0,  999.0,  999.0,  999.0,  999.0,    0.0,   -0.2,   -0.2,    0.1,    0.0,   -0.3,   -0.9,   -1.1,   -0.1,   -0.0,   -0.1,  999.0,  999.0,  999.0,  999.0,   -0.2,   -0.1,  999.0,   -0.2,   -0.1,  999.0,  999.0,   -0.1,  999.0,  999.0,  999.0,  999.0,  999.0,  999.0,  999.0,  999.0,  999.0,  999.0,  999.0,  999.0,  999.0,  999.0,  999.0,  999.0,  999.0,  999.0,  999.0,  999.0,  999.0,  999.0,  999.0,  999.0,  999.0,  999.0,  999.0,  999.0,  999.0,  999.0,  999.0,    0.0
2010/12/08 10:30,    2.8,    0.3,    0.1,    3.4,   -0.1,  999.0,    0.1,    0.0,  999.0,  999.0,    4.3,    3.7,    1.0,    4.1,    3.7,  999.0,  999.0,    4.3,    4.2,    4.0,   -0.1,  999.0,    2.3,    3.4,    1.1,   -0.4,    0.0,   -1.9,   -1.4,   -2.7,   -1.9,   -3.4,   -2.4,  999.0,  999.0,    1.7,   -0.9,   -1.9,   -0.7,  999.0,  999.0,   -1.2,   -1.1,   -0.7,   -2.3,  999.0,  999.0,  999.0,  999.0,  999.0,  999.0,   -0.2,  999.0,  999.0,    0.5,   -0.2,    0.5,    0.1,   -0.1,    0.0,    0.5,    0.7,  999.0,  999.0,  999.0,  999.0,  999.0,  999.0,  999.0,  999.0,  999.0,  999.0,  999.0,  999.0,  999.0,  999.0,  999.0,  999.0,  999.0,  999.0,  999.0,  999.0,  999.0,  999.0,  999.0,  999.0,  999.0,   -0.0,    0.0,    0.0,   -0.1,   -0.1,  999.0,  999.0,  999.0,  999.0,  999.0,  999.0
2010/12/08 10:40,  999.0,  999.0,    1.0,    0.1,   -0.0,    0.1,    0.8,    0.0,   -0.0,    2.9,    4.0,    4.8,    4.8,    5.8,    5.4,    6.5,    5.8,    4.8,    4.8,    6.8,    5.7,    3.0,    3.2,    4.6,    3.9,    3.3,    3.1,    2.9,    2.7,    2.9,    3.5,    4.0,    4.0,    3.8,    2.7,    3.3,    0.5,    0.4,    0.2,   -0.2,    0.1,    0.2,    0.1,   -0.5,   -0.2,   -0.1,   -0.5,   -0.1,   -0.0,   -0.6,   -1.2,   -0.3,   -0.2,   -0.4,   -1.0,   -0.8,  999.0,  999.0,  999.0,  999.0,  999.0,  999.0,  999.0,  999.0,  999.0,  999.0,   -5.4,   -8.0,  999.0,  999.0,  999.0,  999.0,  999.0,  999.0,  999.0,  999.0,  999.0,  999.0,  999.0,  999.0,  999.0,  999.0,  999.0,  999.0,  999.0,  999.0,  999.0,  999.0,   -0.0,    0.1,    0.2,  999.0,  999.0,  999.0,  999.0,  999.0,  999.0,  999.0
2010/12/08 10:50,    3.5,    4.2,    4.1,    2.5,    5.3,    3.5,    4.3,    6.0,    6.4,    5.8,    5.3,    5.1,    4.1,   10.0,  999.0,    8.3,    8.5,    8.3,    6.9,    6.8,    6.8,    4.5,    5.3,    5.2,    4.7,    4.5,    4.1,    4.2,    3.9,    3.8,    4.7,    4.9,    4.6,    4.7,    4.8,    4.5,    4.0,    2.4,    1.1,    0.7,    0.9,    0.4,    0.1,   -0.2,   -0.1,   -0.2,   -0.4,   -0.3,   -0.0,   -0.1,   -0.5,   -0.3,   -1.0,   -1.4,   -1.2,   -1.3,   -3.3,   -3.5,   -4.0,   -3.6,   -4.8,   -5.5,   -6.7,   -6.5,   -2.1,  999.0,  999.0,   -7.5,   -5.2,  999.0,  999.0,   -4.9,   -5.2,  999.0,  999.0,  999.0,  999.0,  999.0,  999.0,  999.0,  999.0,  999.0,  999.0,  999.0,  999.0,  999.0,  999.0,  999.0,  999.0,  999.0,  999.0,  999.0,  999.0,  999.0,  999.0,  999.0,  999.0,  999.0
2010/12/08 11:00,  999.0,    3.2,  999.0,    5.4,    5.8,    8.5,    9.7,   10.3,   10.3,   10.2,    9.4,    9.5,    9.0,    9.1,    8.9,    8.6,    8.5,    8.2,    7.7,    7.3,    6.8,    5.4,    5.5,    4.9,    5.0,    4.9,    5.1,    5.0,    5.1,    4.9,    5.0,    4.6,    4.2,    4.1,    3.8,    3.8,    3.9,    3.3,    2.9,    2.4,    1.7,    1.9,    0.8,    0.2,   -0.1,   -0.4,   -0.2,    0.0,   -0.0,   -0.6,   -0.9,   -1.0,   -3.6,   -2.4,   -3.1,   -3.1,   -3.2,   -3.3,   -2.9,   -2.8,   -3.9,   -4.5,   -3.5,   -3.4,   -3.6,   -1.4,   -1.6,   -1.3,   -1.0,   -1.2,   -1.5,   -2.8,   -3.9,   -5.3,  999.0,  999.0,  999.0,  999.0,  999.0,  999.0,  999.0,  999.0,  999.0,  999.0,   -6.9,  999.0,  999.0,  999.0,  999.0,  999.0,  999.0,  999.0,  999.0,  999.0,  999.0,  999.0,  999.0,  999.0
2010/12/08 11:10,    2.7,    3.8,  999.0,  999.0,    7.7,    8.7,    9.2,    9.5,    9.8,   10.1,   10.1,    8.7,    8.3,    8.3,    8.8,    9.0,    9.4,    9.1,    8.2,    7.5,    6.8,    6.4,    6.1,    6.1,    5.7,    5.5,    5.5,    5.4,    5.4,    5.3,    5.4,    5.0,    4.3,    4.0,    3.1,    2.5,    2.9,    1.8,    1.9,    1.5,    1.6,    1.0,    0.7,    0.5,   -0.0,    0.0,    0.3,    0.2,    0.1,   -0.0,    0.1,   -0.3,  999.0,   -6.7,  999.0,  999.0,  999.0,   -5.0,   -3.8,   -4.2,   -4.1,   -4.6,   -5.5,   -5.1,   -4.4,   -4.2,   -3.6,   -2.7,   -2.7,   -3.5,  999.0,  999.0,  999.0,  999.0,   -2.3,  999.0,   -4.3,  999.0,   -4.8,   -5.6,   -7.1,   -7.9,   -7.7,   -7.9,   -7.9,   -8.3,   -8.5,   -8.3,  999.0,  999.0,  999.0,  999.0,  999.0,  999.0,  999.0,  999.0,  999.0,  999.0
2010/12/08 11:20,  999.0,    4.1,    4.5,  999.0,  999.0,    7.9,    8.6,    9.3,    9.4,    9.8,    9.7,  999.0,    8.5,    9.2,   10.4,   10.9,    9.9,   10.4,    9.6,    7.6,    7.4,    7.2,    7.4,    7.0,    6.3,    5.4,    4.9,    5.1,    5.0,    4.6,    5.4,    5.6,    5.0,    4.5,    3.7,    2.4,    1.6,    0.8,    0.2,    0.2,    0.2,    0.1,   -0.2,   -0.1,   -0.1,   -0.4,   -0.3,   -0.4,   -0.3,   -0.4,   -0.4,    0.5,    0.3,  999.0,    1.7,    1.8,    2.0,  999.0,   -2.2,   -3.7,   -4.3,   -4.9,   -5.0,   -4.8,   -4.4,   -3.8,   -2.6,   -2.2,   -1.9,   -1.6,   -1.7,   -1.7,   -1.9,   -2.2,   -3.0,   -3.4,   -3.4,   -4.0,   -4.5,   -5.2,   -4.8,   -4.9,   -5.4,   -4.8,   -4.4,   -4.8,   -5.1,   -5.9,   -6.7,  999.0,  999.0,  999.0,  999.0,  999.0,  999.0,  999.0,  999.0,  999.0
2010/12/08 11:30,  999.0,    3.8,    4.4,    5.2,    6.3,    7.8,    8.6,    9.3,    9.5,    9.9,    9.9,    9.5,   10.0,    9.7,   10.2,   10.6,   10.0,    9.9,    9.6,    8.3,    7.1,    6.6,    6.4,    6.4,    6.1,    5.7,    5.4,    5.1,    5.0,    5.1,    4.9,    4.9,    4.7,    4.4,    4.2,    3.2,    2.9,    2.5,    2.2,    2.1,    2.1,    1.4,    0.7,    0.3,   -0.2,   -0.2,    0.0,    0.3,  999.0,  999.0,   -4.1,   -4.0,   -6.2,   -6.4,   -5.5,   -4.8,   -3.7,   -3.7,   -3.5,   -4.2,   -4.6,   -4.8,   -4.9,   -4.7,   -4.5,   -3.7,   -2.9,   -2.1,   -1.6,   -1.3,   -1.3,   -1.5,   -1.6,   -2.2,   -2.8,   -3.0,   -3.5,   -4.0,   -5.2,   -6.0,   -6.7,   -7.2,   -7.8,   -8.4,   -8.5,   -8.2,   -8.4,   -8.3,   -8.5,   -8.8,   -9.3,  999.0,  999.0,  999.0,  999.0,  999.0,  999.0,  999.0
2010/12/08 11:40,    1.0,    3.6,    4.6,    5.9,    6.8,    7.2,    7.5,    7.9,    8.8,    9.3,    9.3,    9.1,    8.8,    8.7,    9.1,    9.8,    9.7,    9.3,    9.2,    8.2,    7.6,    6.9,    6.5,    6.0,    6.0,    5.8,    5.4,    5.7,    5.6,    5.6,    5.4,    5.6,    5.5,    5.3,    4.9,    4.9,    4.7,    4.0,    3.0,    3.0,    3.1,    2.9,    1.3,    0.7,   -0.6,   -0.7,   -0.4,   -0.3,  999.0,  999.0,  999.0,  999.0,   -6.0,   -6.2,   -6.1,   -5.5,   -4.0,   -3.9,   -5.4,   -6.1,   -6.4,   -5.7,   -5.4,   -5.0,   -4.6,   -3.2,   -2.0,   -1.4,   -1.3,   -1.2,   -1.7,   -2.0,   -1.9,   -2.6,   -2.7,   -3.1,   -4.0,   -4.0,   -4.8,   -5.6,   -6.0,   -6.6,   -7.3,   -7.5,   -8.1,   -7.8,  999.0,  999.0,  999.0,  999.0,  999.0,  999.0,  999.0,  999.0,  999.0,  999.0,  999.0,  999.0
2010/12/08 11:50,    1.7,    3.7,    4.1,    4.5,    4.4,    6.0,    6.6,    7.7,    8.6,    8.4,    8.6,    8.5,    9.0,    9.3,    9.1,    8.8,    9.1,    8.9,    8.6,    7.7,    7.1,    6.9,    6.7,    6.2,    5.7,    5.5,    5.6,    6.1,    5.9,    6.2,    5.9,    5.7,    5.8,    5.8,    6.1,    6.0,    6.0,    5.6,    4.3,    3.9,    3.5,    2.5,    1.7,  999.0,  999.0,  999.0,    0.3,  999.0,  999.0,  999.0,  999.0,   -3.3,   -4.4,  999.0,  999.0,   -0.4,   -3.6,   -0.5,   -1.0,   -1.0,   -0.9,   -2.0,  999.0,   -2.8,   -2.0,   -1.2,   -1.4,   -1.3,   -1.2,   -1.7,   -2.2,   -2.5,   -2.5,   -2.3,   -2.2,   -2.6,  999.0,  999.0,  999.0,  999.0,  999.0,  999.0,  999.0,  999.0,  999.0,  999.0,  999.0,  999.0,  999.0,  999.0,  999.0,  999.0,  999.0,  999.0,  999.0,  999.0,  999.0,  999.0
2010/12/08 12:00,    1.7,    3.0,  999.0,    3.5,    4.3,    6.0,    7.1,    8.4,    8.5,    8.0,    8.1,    8.3,    8.7,    9.2,    9.6,    9.9,    9.7,    9.0,    8.9,    8.2,    6.4,    6.8,    6.5,    6.5,    6.3,    6.1,    6.0,    5.9,    5.9,    6.2,    6.0,    5.9,    5.3,    5.0,    5.1,    5.4,    5.2,    5.1,    4.4,  999.0,    2.6,    1.4,    0.2,    0.4,    0.2,  999.0,  999.0,  999.0,  999.0,    1.6,    1.7,    1.4,    1.1,    1.0,    1.5,    1.5,    1.3,    1.5,    1.6,    1.0,    1.1,    1.1,    0.5,  999.0,  999.0,  999.0,  999.0,  999.0,  999.0,   -1.8,   -2.4,   -2.7,  999.0,  999.0,  999.0,  999.0,  999.0,  999.0,  999.0,  999.0,  999.0,  999.0,  999.0,  999.0,  999.0,  999.0,  999.0,  999.0,  999.0,  999.0,  999.0,  999.0,  999.0,  999.0,  999.0,  999.0,  999.0,  999.0
2010/12/08 12:10,    3.5,    3.7,    3.0,    4.9,    5.7,    6.9,    8.1,    8.3,    9.0,    8.9,    7.9,    7.9,    8.4,    9.3,    9.7,    9.9,    9.7,    9.7,    9.5,    8.7,    7.6,    6.9,    6.7,    6.0,    5.6,    5.5,    5.9,    5.8,    5.6,    5.4,    5.6,    5.8,    5.4,    4.9,    4.5,    4.7,    4.3,    4.4,    4.7,    4.1,    3.2,    2.1,    1.4,    0.3,    0.0,   -0.1,   -1.0,   -0.6,   -0.4,   -0.1,   -0.5,   -0.4,   -0.2,   -0.4,   -0.3,    0.0,   -0.4,   -0.1,   -0.1,   -0.1,   -0.0,   -0.1,   -1.6,  999.0,  999.0,   -1.5,  999.0,   -0.9,   -1.6,   -2.5,   -3.2,  999.0,  999.0,  999.0,  999.0,  999.0,  999.0,  999.0,  999.0,  999.0,  999.0,  999.0,  999.0,  999.0,  999.0,  999.0,  999.0,  999.0,  999.0,  999.0,  999.0,  999.0,  999.0,  999.0,  999.0,  999.0,  999.0,  999.0
2010/12/08 12:20,    1.9,    3.2,    3.3,    3.6,    4.9,    6.1,    7.4,    8.0,    8.3,    8.6,    9.1,    8.6,    8.6,    8.4,    8.2,    8.3,    8.5,    8.3,    8.3,    7.9,    7.5,    7.1,    6.7,    5.9,    4.9,    4.9,    4.7,    4.7,    5.1,    5.2,    5.1,    5.2,    5.2,    5.3,    4.4,    4.4,    4.6,    4.9,    4.8,    4.0,    3.3,    2.1,    0.1,    0.1,    0.1,   -0.1,   -0.8,   -0.4,   -0.1,    0.2,    0.1,   -0.5,   -0.6,   -0.5,   -0.7,   -0.4,   -0.2,   -0.1,   -0.1,    0.0,   -0.1,   -0.5,   -0.7,    0.2,   -1.0,  999.0,  999.0,  999.0,  999.0,   -2.9,   -3.4,   -4.0,  999.0,  999.0,  999.0,  999.0,  999.0,  999.0,  999.0,  999.0,  999.0,  999.0,  999.0,  999.0,  999.0,  999.0,  999.0,  999.0,  999.0,  999.0,  999.0,  999.0,  999.0,  999.0,  999.0,  999.0,  999.0,  999.0
2010/12/08 12:30,  999.0,  999.0,    2.1,    3.5,    3.8,    5.2,    6.3,    7.1,    8.3,  999.0,    9.6,    9.3,    8.6,    9.0,    8.8,    8.9,    9.2,    9.8,    9.0,    8.5,    7.2,    7.2,    6.5,    6.1,    5.4,    5.2,    5.0,    4.8,    5.2,    5.3,    5.2,    5.0,    4.7,    4.6,    4.0,    3.9,    3.9,    3.2,    2.2,    1.8,    0.9,   -0.2,   -0.1,    0.0,    0.1,   -0.0,   -0.5,   -0.2,   -0.1,   -0.1,   -0.4,   -0.5,   -0.3,   -0.3,   -0.7,   -0.5,   -0.2,   -0.1,   -0.1,   -0.0,   -0.1,   -0.1,  999.0,  999.0,  999.0,   -1.1,   -1.8,  999.0,  999.0,  999.0,   -1.5,   -2.9,  999.0,  999.0,  999.0,  999.0,  999.0,  999.0,  999.0,  999.0,  999.0,  999.0,  999.0,  999.0,  999.0,  999.0,  999.0,  999.0,  999.0,  999.0,  999.0,  999.0,  999.0,  999.0,  999.0,  999.0,  999.0,  999.0
2010/12/08 12:40,    2.5,    2.8,    3.0,    4.6,    5.0,    6.4,    7.6,    7.5,    8.0,    8.9,    8.3,    7.9,    8.3,    9.2,    9.9,    9.4,    9.5,    9.2,    8.6,    7.9,    7.2,    7.3,    6.9,    6.7,    6.0,    5.3,    4.7,    4.3,    4.2,    4.4,    4.6,    4.5,    4.0,    3.7,    3.4,    3.6,    4.1,    4.2,    3.1,    2.9,    2.2,    1.0,    0.5,    0.2,    0.1,   -0.0,   -0.1,    0.0,   -0.0,   -0.0,   -0.1,   -0.1,   -0.2,   -0.0,   -0.4,   -0.9,   -0.3,   -0.1,   -0.1,   -0.0,   -0.2,   -0.3,   -0.6,  999.0,    0.1,   -0.2,   -2.1,   -1.0,   -0.5,   -0.6,   -2.6,   -3.7,  999.0,  999.0,  999.0,  999.0,  999.0,  999.0,  999.0,  999.0,  999.0,  999.0,  999.0,  999.0,  999.0,  999.0,  999.0,  999.0,  999.0,  999.0,  999.0,  999.0,  999.0,  999.0,  999.0,  999.0,  999.0,  999.0
2010/12/08 12:50,    3.2,    4.1,    5.3,    5.8,    5.9,    6.6,    7.2,    7.8,    7.8,    7.7,    7.6,    7.9,    7.9,  999.0,    8.5,    8.9,    9.4,    9.5,    9.1,    9.2,    9.6,    9.0,    8.4,    8.2,    7.5,    6.9,    6.6,    6.0,    5.5,    5.1,    5.0,    4.3,    3.5,    3.0,    2.4,    2.4,    1.6,    1.4,    1.0,    1.4,    1.2,    0.5,    0.1,    0.2,   -0.0,   -0.1,   -0.2,   -0.1,   -0.0,   -0.0,   -0.0,   -0.2,   -0.2,    0.0,   -0.1,   -0.2,   -0.2,    0.0,   -0.0,    0.0,   -0.1,    0.0,   -0.2,   -0.5,   -0.0,   -0.0,   -0.5,  999.0,  999.0,   -1.7,  999.0,  999.0,  999.0,  999.0,  999.0,  999.0,  999.0,  999.0,  999.0,  999.0,  999.0,  999.0,  999.0,  999.0,  999.0,  999.0,  999.0,  999.0,   -0.1,  999.0,    0.0,  999.0,  999.0,  999.0,  999.0,  999.0,  999.0,  999.0
2010/12/08 13:00,    1.9,    2.6,    4.7,    4.4,    5.6,    6.9,    7.7,    8.0,    8.3,    8.1,    7.6,    7.9,    8.4,    8.2,    8.6,    9.1,    8.6,    8.0,    8.5,    9.1,    9.3,    9.4,    8.6,    8.5,    8.1,    7.7,    7.2,    6.6,    6.5,    6.3,    6.3,    5.9,    5.6,    5.0,    4.7,    3.7,    3.0,    1.9,    0.8,    1.3,    1.1,    0.4,    0.3,    0.2,    0.1,    0.1,   -0.1,   -0.0,    0.1,    0.1,    0.0,   -0.3,   -0.2,   -0.0,    0.0,   -0.0,   -0.0,   -0.1,   -0.1,    0.0,   -0.0,    0.0,  999.0,  999.0,  999.0,   -0.5,   -0.9,   -0.7,   -0.4,   -0.1,  999.0,  999.0,  999.0,  999.0,  999.0,  999.0,  999.0,  999.0,  999.0,  999.0,  999.0,  999.0,  999.0,  999.0,  999.0,  999.0,  999.0,  999.0,    0.0,  999.0,  999.0,   -0.1,  999.0,  999.0,  999.0,  999.0,  999.0,  999.0
2010/12/08 13:10,    1.4,    2.3,    2.5,    4.5,    5.4,    6.1,    7.4,    7.7,    7.8,    7.9,    7.3,    6.9,    7.3,    7.8,    8.0,    8.6,    8.8,    8.2,    7.0,    7.0,    4.8,    4.5,    4.3,    4.2,    4.3,    5.4,    6.6,    6.1,    6.1,    6.0,    6.9,    6.2,    6.5,    7.9,    7.3,    5.3,    4.0,    4.5,    3.9,    2.2,    1.9,    1.2,    1.1,    0.8,    0.2,    0.2,    0.7,    0.4,    0.1,    0.0,   -0.8,   -0.5,    0.0,   -0.0,    0.2,    0.1,   -0.2,    0.1,   -0.0,   -0.0,   -0.1,   -0.0,    0.2,  999.0,   -0.3,   -1.2,   -1.3,   -1.0,   -0.7,  999.0,  999.0,  999.0,  999.0,  999.0,  999.0,  999.0,  999.0,  999.0,  999.0,  999.0,  999.0,  999.0,  999.0,  999.0,  999.0,  999.0,  999.0,  999.0,  999.0,  999.0,  999.0,  999.0,  999.0,  999.0,  999.0,  999.0,  999.0,  999.0
2010/12/08 13:20,    1.5,    2.1,    3.0,  999.0,  999.0,    5.2,    0.1,    4.7,    5.0,    5.6,    0.2,    1.5,    3.5,    1.8,  999.0,  999.0,  999.0,    8.5,    7.1,    7.2,    7.6,    7.3,    6.4,    6.2,    6.2,    6.8,    7.1,    7.5,    7.4,    7.2,    7.0,    7.4,    7.3,    7.3,    8.1,    8.6,    7.6,    5.7,    6.0,  999.0,    6.8,    6.7,    7.2,    8.5,    5.1,    3.9,  999.0,    0.7,    0.7,    0.1,   -0.4,   -0.9,   -0.5,   -0.1,   -0.1,   -0.0,   -0.1,   -0.0,   -0.0,   -0.1,    0.0,  999.0,   -1.2,  999.0,  999.0,   -0.9,   -0.5,  999.0,  999.0,  999.0,  999.0,  999.0,  999.0,  999.0,  999.0,  999.0,  999.0,  999.0,  999.0,  999.0,  999.0,  999.0,  999.0,  999.0,  999.0,  999.0,  999.0,  999.0,  999.0,  999.0,  999.0,  999.0,  999.0,  999.0,  999.0,  999.0,  999.0,  999.0
2010/12/08 13:30,  999.0,    4.2,    5.3,    5.0,    4.3,    2.3,    4.1,    7.6,  999.0,    6.6,    3.5,    2.9,  999.0,  999.0,  999.0,   10.2,    5.7,    3.2,  999.0,  999.0,  999.0,  999.0,    7.2,    7.0,    7.1,    7.1,    7.3,    7.3,    7.1,    7.3,    6.7,    6.8,    6.1,    6.0,    6.2,    6.3,  999.0,    6.8,    2.0,    1.8,    3.0,    2.0,    1.5,   -0.9,   -1.6,   -2.5,  999.0,   -2.1,   -0.7,   -1.3,   -1.4,   -1.4,  999.0,   -0.1,   -0.6,   -0.3,   -0.4,   -0.2,    0.0,   -0.1,  999.0,   -3.1,   -2.9,  999.0,  999.0,  999.0,  999.0,  999.0,  999.0,  999.0,  999.0,  999.0,  999.0,  999.0,  999.0,  999.0,  999.0,  999.0,  999.0,  999.0,  999.0,  999.0,  999.0,  999.0,  999.0,  999.0,  999.0,  999.0,  999.0,  999.0,  999.0,  999.0,  999.0,  999.0,  999.0,  999.0,  999.0,  999.0
2010/12/08 13:40,    1.3,    3.6,    3.5,    3.3,    2.6,    4.8,    6.5,    6.1,    5.5,    5.7,    6.5,    7.1,    6.7,  999.0,  999.0,  999.0,  999.0,    4.7,  999.0,  999.0,  999.0,  999.0,    6.5,    6.7,    6.6,    6.5,    6.6,    6.5,    6.6,    6.3,    6.3,    6.0,    5.8,    5.9,    5.8,    5.2,    5.5,    5.8,    3.8,    3.3,    1.7,    2.6,    3.0,    1.3,    0.4,   -0.4,   -0.4,   -0.7,   -0.1,    0.1,   -0.2,   -0.1,   -1.0,   -0.6,   -0.3,   -0.2,   -0.4,   -0.0,   -0.1,   -0.0,   -0.3,   -2.0,   -2.8,  999.0,  999.0,  999.0,   -0.7,  999.0,  999.0,  999.0,  999.0,  999.0,  999.0,  999.0,  999.0,  999.0,  999.0,  999.0,  999.0,  999.0,  999.0,  999.0,  999.0,  999.0,  999.0,  999.0,  999.0,  999.0,  999.0,  999.0,  999.0,  999.0,  999.0,  999.0,  999.0,  999.0,  999.0,  999.0
2010/12/08 13:50,    1.9,    2.8,    2.4,    2.2,    2.5,    5.0,    6.3,    7.2,    6.8,    7.1,    6.2,    7.2,  999.0,  999.0,  999.0,  999.0,    6.7,    6.6,   10.0,    7.3,    8.3,  999.0,    6.2,    6.7,    6.8,    6.6,    6.7,    6.4,    5.9,  999.0,    5.3,    5.5,    5.5,    5.4,    4.6,    4.4,    4.5,    4.7,    4.5,    3.1,    3.3,  999.0,    4.2,    2.0,    1.1,    0.5,    0.1,   -0.2,    0.1,    0.3,   -0.1,   -0.3,   -0.9,   -0.1,   -0.2,   -0.2,   -0.2,   -0.0,   -0.2,   -0.1,   -0.3,  999.0,  999.0,  999.0,  999.0,  999.0,  999.0,  999.0,  999.0,  999.0,  999.0,  999.0,  999.0,  999.0,  999.0,  999.0,  999.0,  999.0,  999.0,  999.0,  999.0,  999.0,  999.0,  999.0,  999.0,  999.0,  999.0,  999.0,  999.0,  999.0,  999.0,  999.0,  999.0,  999.0,  999.0,  999.0,  999.0,  999.0
2010/12/08 14:00,    1.9,    1.9,    1.7,    1.8,    2.2,    4.0,    6.0,    6.7,    6.9,    6.8,  999.0,  999.0,  999.0,  999.0,  999.0,    5.5,    7.3,    6.7,    6.8,  999.0,    6.8,    6.1,    6.5,    6.1,    6.4,    6.5,    6.3,    6.3,    6.1,  999.0,    5.1,    5.0,    5.0,    5.2,    4.0,    3.5,    3.3,    3.9,  999.0,    4.5,    2.9,    1.8,    1.7,    1.6,    0.8,    0.6,    0.2,    0.3,    0.4,    0.3,    0.2,    0.1,   -0.1,   -0.2,   -0.3,   -0.5,   -0.3,   -0.2,   -0.2,   -0.5,   -0.3,  999.0,  999.0,   -2.1,  999.0,  999.0,  999.0,  999.0,  999.0,  999.0,  999.0,  999.0,  999.0,  999.0,  999.0,  999.0,  999.0,  999.0,  999.0,  999.0,  999.0,  999.0,  999.0,  999.0,  999.0,  999.0,  999.0,  999.0,  999.0,  999.0,  999.0,  999.0,  999.0,  999.0,  999.0,  999.0,  999.0,  999.0
2010/12/08 14:10,  999.0,    0.9,    0.9,    1.1,  999.0,    3.5,    5.5,    6.4,    6.2,    6.4,    5.6,    6.3,    6.8,  999.0,  999.0,    6.9,    7.5,    6.3,    8.2,  999.0,    7.4,    6.0,    5.4,    5.5,    5.1,    5.1,    4.9,    4.3,    4.7,    4.6,    4.4,    4.5,    4.9,    5.0,    4.2,    3.9,    3.9,    4.0,  999.0,  999.0,    3.2,    1.7,    1.4,    1.4,    0.9,    0.6,    0.3,    0.4,    0.5,    0.3,    0.3,    0.2,   -0.2,   -0.4,   -0.4,   -0.6,   -0.7,   -0.6,   -0.5,   -0.9,   -1.0,  999.0,   -3.7,  999.0,  999.0,  999.0,  999.0,  999.0,  999.0,  999.0,  999.0,  999.0,  999.0,  999.0,  999.0,  999.0,  999.0,  999.0,  999.0,  999.0,  999.0,  999.0,  999.0,  999.0,  999.0,  999.0,  999.0,  999.0,  999.0,  999.0,   -4.5,  999.0,   -5.5,   -5.6,   -5.7,   -5.7,   -5.4,   -5.4
2010/12/08 14:20,  999.0,    0.5,    2.2,    2.1,    3.8,    5.9,    6.5,    7.2,    5.6,    5.6,    7.3,    6.4,    7.3,    8.2,    8.8,    8.6,  999.0,    8.6,    7.9,    6.5,    7.4,    5.9,    6.2,    5.2,    5.0,    4.7,    4.6,    4.4,  999.0,    4.4,    4.4,    4.6,    4.9,    4.7,    4.6,    3.9,    3.8,    4.0,    4.2,    4.7,    3.9,    3.1,    2.2,    2.2,    1.9,    2.2,    1.8,    1.9,    1.9,    1.8,    1.1,    0.3,    0.1,   -0.2,   -0.6,   -0.1,   -0.5,   -0.3,   -0.4,   -0.1,   -0.0,   -1.7,   -2.1,   -3.3,  999.0,  999.0,  999.0,  999.0,  999.0,  999.0,  999.0,  999.0,  999.0,  999.0,  999.0,  999.0,  999.0,  999.0,  999.0,  999.0,  999.0,  999.0,  999.0,  999.0,  999.0,  999.0,   -5.2,   -5.5,   -5.2,   -5.8,   -5.6,   -5.8,   -5.8,   -5.6,   -5.5,   -5.4,   -5.4,   -5.9
2010/12/08 14:30,    0.7,    1.4,  999.0,    2.3,    4.9,    6.3,    7.0,    6.7,    6.2,    6.7,    7.5,    7.9,    8.3,  999.0,    8.3,    9.0,    9.0,    8.9,    8.5,    7.4,    6.6,    5.8,    4.8,    4.4,    4.2,    4.0,    3.4,    3.4,    3.4,    3.4,    3.5,    3.5,    4.0,    4.2,    3.4,    3.3,    3.4,    3.9,    4.2,    5.0,    4.0,    3.1,    2.5,    2.2,    2.0,    1.9,    1.8,    2.5,    2.8,    1.9,    1.0,    0.5,    0.3,   -0.3,  999.0,   -1.0,   -0.6,   -1.1,   -1.0,   -2.2,  999.0,   -0.3,  999.0,  999.0,  999.0,  999.0,  999.0,  999.0,  999.0,  999.0,  999.0,  999.0,  999.0,  999.0,  999.0,  999.0,   -3.1,   -3.6,   -3.7,   -3.6,   -3.6,   -4.3,   -4.9,   -5.1,   -5.1,   -5.2,   -5.2,   -5.2,   -5.1,   -5.0,   -4.9,   -4.9,   -4.8,   -5.1,   -5.6,   -6.3,   -7.4,   -8.7
2010/12/08 14:40,    0.3,    0.9,    1.4,  999.0,    5.1,    6.2,    6.9,    6.1,    6.0,    6.1,    6.5,    6.7,    7.1,    7.2,    7.6,    8.4,    8.2,    8.3,    8.6,  999.0,    6.3,    5.6,    4.6,    3.8,    3.0,    2.6,    2.5,    2.6,    3.0,    3.3,    3.4,    3.4,    3.6,    3.8,    3.7,    3.8,    3.1,  999.0,  999.0,    3.2,    3.7,    2.7,    1.5,    1.6,    1.0,    1.1,    1.6,    2.0,    1.8,    1.1,    0.6,    0.0,  999.0,  999.0,   -0.0,    0.3,    0.2,    0.2,   -0.1,   -0.6,   -1.4,  999.0,  999.0,  999.0,   -2.4,  999.0,   -0.3,   -0.5,   -0.5,   -0.9,   -1.4,   -1.3,   -2.3,   -3.0,   -2.5,   -2.4,   -2.9,   -3.7,   -4.2,   -4.2,   -4.2,   -4.7,   -5.6,   -5.6,   -5.6,   -5.3,   -5.2,   -5.1,   -5.0,   -4.8,   -4.6,   -4.3,   -4.6,   -5.6,   -7.0,   -8.6,   -9.5,  -10.1
2010/12/08 14:50,    0.4,    0.5,    1.1,    2.7,    4.7,    5.8,    6.5,    5.5,    5.5,    5.9,    6.2,    6.6,    7.0,    7.4,    7.8,    8.0,    8.8,  999.0,    8.3,    8.4,    7.8,  999.0,  999.0,    4.9,    4.0,    3.2,    3.1,    3.0,    3.1,    3.3,    3.4,    3.4,    4.0,    4.3,    4.5,    4.7,    4.8,    4.0,  999.0,    3.3,    3.6,  999.0,  999.0,    2.1,    1.4,    1.9,    1.9,    1.6,    1.1,    0.5,    0.1,   -0.2,   -0.3,    0.2,    0.4,    0.2,    0.1,   -0.4,   -0.4,   -0.8,   -0.8,   -0.6,  999.0,   -2.0,   -0.1,    0.4,    0.2,   -0.3,   -0.6,   -1.0,   -1.9,   -2.9,   -3.4,   -3.4,   -2.7,   -2.7,   -3.1,   -3.6,   -4.0,   -3.7,   -3.8,   -4.1,   -4.3,   -4.2,   -3.9,   -3.5,   -3.2,   -3.3,   -3.5,   -4.3,   -5.0,   -5.4,   -5.7,   -6.3,   -7.3,   -8.3,   -8.9,   -9.5
2010/12/08 15:00,    0.2,   -0.2,    0.6,    1.7,    3.8,    4.9,    5.3,    4.8,    4.9,    5.5,    6.1,    6.5,    6.7,    6.5,    6.7,    8.0,    8.6,    7.4,    7.3,    7.9,    7.5,    6.7,  999.0,  999.0,    4.7,    3.8,    3.5,    3.3,    3.6,    3.9,    4.2,    4.2,    4.0,    4.4,    4.6,    4.4,    3.8,    3.9,    3.0,    2.9,    2.8,    2.5,    1.9,    1.7,    0.7,    0.7,    1.2,    0.8,    0.7,    0.5,  999.0,   -0.8,  999.0,  999.0,  999.0,  999.0,  999.0,  999.0,  999.0,  999.0,  999.0,  999.0,   -1.7,   -1.7,   -1.3,   -0.8,   -1.0,   -1.8,   -2.1,   -2.0,   -2.3,   -2.6,   -3.1,   -3.1,   -2.8,   -3.1,   -3.5,   -4.0,   -4.1,   -3.8,   -4.0,   -4.3,   -4.3,   -4.2,   -3.8,   -3.5,   -3.8,   -4.3,   -5.0,   -5.3,   -5.3,   -5.4,   -5.3,   -5.6,   -6.2,   -6.7,   -7.6,   -8.5
2010/12/08 15:10,   -0.0,   -0.0,    0.2,    1.5,    3.4,    4.6,    5.2,    5.5,    5.4,    5.5,    5.9,    6.0,    5.9,    6.1,    6.8,    7.5,    8.2,    7.9,    6.8,    6.2,    5.9,    5.5,  999.0,    4.6,    4.6,    4.1,    4.2,    3.8,    3.7,    3.6,    4.0,    4.1,    4.1,    3.6,    3.2,    2.9,    2.8,    2.7,    2.4,    2.5,    2.6,    2.2,    1.8,    1.5,    0.4,  999.0,  999.0,    0.9,  999.0,   -1.2,  999.0,   -2.2,   -1.2,   -1.1,   -1.0,   -1.3,   -1.3,   -1.3,   -1.0,   -1.0,   -1.2,   -1.4,   -1.5,   -1.4,   -1.0,   -0.9,   -1.3,   -2.1,   -2.3,   -2.3,   -2.6,   -2.9,   -3.1,   -2.9,   -2.8,   -3.2,   -3.4,   -3.6,   -3.4,   -3.6,   -3.9,   -4.0,   -3.8,   -3.6,   -3.6,   -4.3,   -5.2,   -6.0,   -5.8,   -5.6,   -5.3,   -5.2,   -5.3,   -5.3,   -5.5,   -5.7,   -6.0,   -6.6
2010/12/08 15:20,    0.0,    0.1,    0.4,    1.8,    3.4,    4.9,    5.9,    6.1,    5.9,    6.1,    6.3,    5.9,    5.5,    5.6,    6.5,    8.6,    9.0,    8.7,    8.4,    6.8,    7.0,    6.2,    5.6,  999.0,    4.5,    4.3,    4.0,    3.2,    2.8,    2.5,    2.8,    3.1,    2.7,    2.1,    2.0,    1.9,    2.0,    1.7,    1.4,    2.1,    1.4,    1.6,    1.0,    0.8,    0.6,  999.0,  999.0,   -2.2,   -2.0,   -1.0,   -0.5,   -0.7,   -0.7,   -0.4,   -0.8,   -0.9,   -1.2,   -1.0,   -1.0,   -1.0,   -0.8,   -1.1,   -1.5,   -1.5,   -1.2,   -0.8,   -0.9,   -1.6,   -1.9,   -2.1,   -2.8,   -3.2,   -3.1,   -2.8,   -2.9,   -3.3,   -3.6,   -3.5,   -3.1,   -3.2,   -3.4,   -3.6,   -3.6,   -4.0,   -4.9,   -5.9,   -6.4,   -6.3,   -5.9,   -5.9,   -6.0,   -5.9,   -5.2,   -5.0,   -4.8,   -5.0,   -5.3,   -5.6
2010/12/08 15:30,  999.0,    0.1,    0.0,    0.6,    2.7,    4.0,    5.3,    5.9,    6.2,    6.4,    5.8,    5.0,    4.7,    4.6,    6.2,  999.0,    7.4,    7.3,    6.9,    6.6,    5.8,    5.0,    4.7,    4.4,    4.2,    3.7,    2.9,    2.6,    2.9,    2.9,    3.0,    3.0,    3.3,    2.7,    2.1,    2.3,    2.6,    2.7,    2.4,    2.9,    2.4,    1.9,    1.4,    0.6,  999.0,  999.0,  999.0,   -2.3,   -2.0,   -1.8,   -1.4,   -1.8,   -0.9,   -0.6,   -2.1,   -2.1,   -2.4,   -1.0,   -1.4,   -1.6,   -1.2,   -1.2,   -1.3,   -1.6,   -1.1,   -0.7,   -0.7,   -1.2,   -1.6,   -2.2,   -2.7,   -3.1,   -3.1,   -3.0,   -3.1,   -3.3,   -3.4,   -2.9,   -2.9,   -3.3,   -3.6,   -3.9,   -4.3,   -5.1,   -6.1,   -6.5,   -6.7,   -6.5,   -6.4,   -6.3,   -6.1,   -5.6,   -5.3,   -5.5,   -5.7,   -5.9,   -6.0,   -6.5
2010/12/08 15:40,    0.2,    0.5,    0.4,    0.3,    2.0,    3.7,    5.1,    6.1,    6.3,    6.1,    5.8,    4.9,    4.3,    4.6,    6.9,    7.8,    6.9,    7.0,    5.6,    5.7,    5.9,    4.7,    4.4,  999.0,    3.4,    3.3,    2.8,    2.1,    1.9,    1.9,    2.0,    2.7,    2.2,    2.2,   -1.6,   -1.6,   -0.9,   -0.8,   -0.4,   -1.8,   -1.0,   -2.8,  999.0,  999.0,  999.0,  999.0,  999.0,  999.0,   -1.3,   -1.2,   -1.5,   -1.4,   -0.1,   -0.1,   -0.4,   -0.2,   -0.4,   -0.9,   -1.5,   -2.1,   -2.5,   -2.3,   -1.6,   -1.7,   -1.4,   -0.9,   -0.9,   -1.3,   -1.6,   -2.2,   -2.6,   -2.8,   -3.0,   -3.2,   -3.3,   -3.2,   -3.1,   -3.0,   -3.2,   -3.8,   -4.2,   -4.7,   -5.4,   -5.8,   -6.2,   -6.5,   -6.4,   -6.2,   -6.1,   -6.0,   -6.0,   -5.9,   -5.8,   -5.7,   -5.7,   -5.7,   -5.8,   -6.7
2010/12/08 15:50,  999.0,    1.0,    1.0,    1.7,    3.1,    4.0,    5.2,    6.4,    6.2,    8.3,    8.5,    6.9,    7.5,    9.9,   10.0,    8.7,    7.9,    7.6,    7.8,    7.4,    7.4,    6.2,    4.8,    3.9,    3.9,    3.6,    3.2,    2.5,    2.7,    2.9,    2.5,    3.4,    3.5,    3.6,    3.1,    2.9,    3.5,    3.5,    3.5,    4.2,    3.6,    2.7,    1.0,    1.7,    0.5,  999.0,  999.0,  999.0,   -1.8,   -1.4,   -1.7,   -2.1,   -1.7,   -1.1,   -0.7,   -0.6,   -0.5,   -0.8,   -1.1,   -1.7,   -2.2,   -2.5,   -2.2,   -1.7,   -1.4,   -1.0,   -0.9,   -1.5,   -1.8,   -2.3,   -2.8,   -3.0,   -3.4,   -3.4,   -3.3,   -3.2,   -3.2,   -3.4,   -3.9,   -4.4,   -5.2,   -5.7,   -5.9,   -5.9,   -5.8,   -5.7,   -6.0,   -6.0,   -6.0,   -5.8,   -5.7,   -5.4,   -5.2,   -5.3,   -5.6,   -5.9,   -6.2,   -6.8
2010/12/08 16:00,    0.8,    0.7,    0.8,    1.9,    3.1,    4.3,    5.0,    5.3,    5.2,    6.0,    5.9,    5.1,    6.2,    7.3,    8.0,    9.2,    9.1,    8.7,    8.4,    8.2,    7.7,    7.1,    5.8,    5.2,    5.1,    5.1,    4.9,    4.6,    3.8,    4.2,    4.7,    4.9,    4.9,    5.1,    4.9,    5.0,    5.2,    5.1,    4.7,    4.6,    4.1,    3.4,    2.7,    2.0,    0.6,    0.8,  999.0,  999.0,   -0.2,   -0.8,   -0.8,   -1.1,   -1.4,   -1.2,   -1.1,   -0.9,   -0.9,   -1.0,   -1.3,   -1.7,   -2.4,   -2.7,   -3.0,   -2.7,   -2.4,   -2.2,   -2.1,   -2.4,   -2.9,   -3.4,   -3.7,   -4.0,   -4.3,   -4.4,   -4.3,   -4.3,   -4.2,   -4.4,   -5.0,   -5.9,   -6.5,   -5.9,   -5.4,   -5.7,   -6.2,   -6.4,   -6.2,   -6.0,   -5.8,   -5.8,   -5.8,   -5.8,   -6.0,   -6.5,   -7.0,   -7.1,   -7.1,   -7.2
2010/12/08 16:10,    0.4,    0.3,    1.0,    2.2,    3.8,    5.0,    5.8,    6.0,    5.7,    6.2,    6.8,    6.3,    6.0,    6.9,    7.4,    8.2,    9.0,    8.8,    8.5,    8.9,    8.4,    7.8,    6.6,    6.4,    6.4,    6.2,    5.6,    5.3,    4.3,    4.1,    4.3,    4.2,    4.7,    3.9,    4.3,    4.2,    4.4,    4.3,    4.2,    3.8,    3.8,    2.7,    0.8,  999.0,  999.0,  999.0,  999.0,  999.0,   -0.6,   -0.9,   -1.1,   -1.5,   -1.7,   -1.8,   -2.2,   -2.2,   -1.5,   -1.6,   -1.8,   -2.2,   -3.5,   -3.6,   -3.6,   -3.5,   -3.3,   -2.6,  999.0,   -3.0,   -3.6,   -3.8,   -4.1,   -4.6,   -4.9,   -4.9,   -5.1,   -5.0,   -4.8,   -4.9,   -5.7,   -6.5,   -5.7,   -4.9,   -5.4,   -5.9,   -6.1,   -5.8,   -5.6,   -5.4,   -5.4,   -5.7,   -5.9,   -6.6,   -7.5,   -8.3,   -8.3,   -8.0,   -8.3,   -8.5
2010/12/08 16:20,    0.8,    0.3,    0.9,    1.6,    2.7,    4.2,    5.4,    6.4,    6.6,    6.8,    7.3,    6.6,    6.6,    7.7,    8.4,    9.0,    8.9,    9.0,    8.7,    8.9,    8.4,    8.3,    7.0,    6.6,    6.9,    6.5,    5.7,    5.8,    5.5,    5.3,    4.6,    4.1,    4.7,    5.0,    5.2,    5.1,    5.1,    5.2,    5.4,    5.7,    4.9,    3.8,    1.5,    1.1,  999.0,  999.0,  999.0,  999.0,   -1.1,   -1.6,   -1.5,   -1.8,   -2.1,   -2.7,   -2.7,  999.0,  999.0,  999.0,   -2.0,   -2.9,   -3.0,   -3.1,   -2.8,   -2.7,   -2.5,   -2.2,   -2.3,   -2.7,   -3.3,   -3.7,   -3.9,   -4.1,   -4.7,   -5.1,   -5.3,   -5.7,   -5.4,   -5.6,   -6.2,   -6.2,   -5.3,   -5.5,   -5.8,   -5.8,   -5.7,   -5.6,   -5.5,   -5.7,   -5.9,   -6.1,   -6.7,   -7.6,   -8.2,   -8.3,   -7.9,   -8.0,   -8.4,   -8.8
2010/12/08 16:30,    0.3,    0.6,    1.3,    2.6,    3.9,    5.1,    6.3,    6.7,    6.6,    7.0,    6.7,    6.5,    7.0,    7.7,    8.8,    9.4,    8.7,    8.9,    8.2,    8.5,    8.6,    7.9,    6.6,    6.0,    6.8,    4.7,    6.3,    5.3,  999.0,  999.0,  999.0,  999.0,  999.0,  999.0,    3.7,  999.0,    4.5,  999.0,  999.0,  999.0,  999.0,  999.0,    1.6,  999.0,  999.0,  999.0,  999.0,   -1.7,   -1.0,   -2.0,   -2.8,   -2.7,   -2.8,   -3.2,   -3.3,   -3.1,   -2.9,   -2.8,   -2.2,   -2.7,   -3.3,   -3.3,   -3.2,   -3.1,   -2.8,   -2.5,   -2.6,   -3.2,   -3.7,   -4.2,   -4.5,   -4.4,   -4.9,   -5.7,   -6.1,   -6.3,   -6.5,   -6.4,   -6.6,   -6.2,   -5.6,   -5.6,   -5.8,   -5.9,   -5.8,   -5.8,   -5.8,   -6.1,   -6.3,   -6.4,   -6.9,   -7.8,   -8.4,   -8.4,   -8.2,   -8.3,   -8.8,   -9.6
2010/12/08 16:40,    0.5,    1.9,    1.6,    2.8,  999.0,  999.0,    7.2,    8.0,    7.1,    6.8,    7.9,    7.0,    8.1,    9.3,    8.7,    9.0,  999.0,  999.0,  999.0,    7.2,    6.2,    6.6,    5.8,    5.1,    5.0,    5.1,    4.8,  999.0,    4.8,    4.9,    4.3,  999.0,    4.9,    4.4,    4.2,    4.3,    4.7,    4.6,    4.8,    4.6,    4.7,    3.2,  999.0,  999.0,  999.0,  999.0,  999.0,  999.0,   -1.4,   -1.5,   -1.9,   -3.2,   -3.0,   -3.0,   -3.3,   -3.4,   -3.3,   -3.2,   -2.6,   -2.3,   -3.1,   -3.5,   -3.2,   -3.1,   -3.3,   -3.1,   -2.6,   -3.0,   -3.9,   -4.6,   -4.8,   -4.8,   -5.1,   -6.1,   -6.6,   -6.7,   -6.7,   -6.6,   -6.3,   -5.7,   -5.7,   -5.8,   -5.8,   -5.9,   -5.8,   -5.9,   -6.1,   -6.4,   -6.7,   -7.0,   -7.1,   -7.6,   -8.0,   -8.0,   -7.7,   -8.0,   -8.5,   -9.1
2010/12/08 16:50,    0.5,    0.9,    4.6,    3.4,    4.0,    5.7,    7.3,    7.5,    8.5,  999.0,   10.0,    8.1,    8.5,    8.2,    8.7,   12.7,  999.0,  999.0,  999.0,  999.0,    6.2,    5.9,    5.8,  999.0,    4.3,  999.0,  999.0,  999.0,  999.0,  999.0,    4.0,    3.7,    4.1,    3.9,    4.2,    4.1,    4.5,  999.0,  999.0,  999.0,  999.0,    3.3,    2.7,  999.0,  999.0,  999.0,  999.0,   -0.8,   -2.0,   -2.5,   -2.9,   -4.4,   -4.5,   -4.2,   -4.1,   -4.0,   -3.8,   -3.6,   -3.3,   -3.0,   -3.9,   -4.5,   -4.2,   -3.7,   -4.1,   -4.0,   -3.4,   -3.7,   -4.5,   -5.0,   -5.1,   -5.1,   -5.4,   -6.3,   -6.7,   -6.2,   -5.9,   -5.9,   -5.8,   -5.7,   -5.6,   -5.5,   -5.6,   -6.0,   -6.2,   -6.1,   -6.2,   -6.5,   -6.5,   -6.6,   -6.7,   -7.2,   -7.7,   -7.6,   -7.1,   -6.9,   -7.2,   -7.4
2010/12/08 17:00,  999.0,  999.0,    5.1,    4.4,    5.4,    7.9,    8.1,    6.8,    7.0,    5.4,    5.5,    4.8,    6.6,    7.4,  999.0,  999.0,   10.6,    8.3,    8.5,    8.2,    7.8,    7.2,    6.1,    6.0,    6.0,    4.9,    4.9,    4.6,    4.9,    4.6,    4.5,    3.9,    3.9,    4.2,    4.0,  999.0,    3.5,    4.6,  999.0,    4.0,    3.7,    2.8,    1.9,  999.0,  999.0,  999.0,  999.0,  999.0,   -1.4,   -2.1,   -3.0,   -4.1,   -4.7,   -4.5,   -4.4,   -4.2,   -4.0,   -3.7,   -3.2,   -3.3,   -4.1,   -4.7,   -4.2,   -3.6,   -3.7,   -3.8,   -3.1,   -3.6,   -4.2,   -4.5,   -4.5,   -4.7,   -5.4,   -5.6,   -5.4,   -5.4,   -5.5,   -5.5,   -5.4,   -5.2,   -5.3,   -5.1,   -5.2,   -5.7,   -5.9,   -6.2,   -6.4,   -6.6,   -6.8,   -6.7,   -6.6,   -6.7,   -7.2,   -7.6,   -7.6,   -7.2,   -6.9,   -6.7
2010/12/08 17:10,    0.7,    1.5,    2.7,    3.2,    4.0,    5.2,    6.3,    7.0,    7.4,    6.9,    6.6,    6.5,    7.0,    8.6,    8.9,    9.6,   10.1,    8.9,    7.6,  999.0,  999.0,    7.8,    5.4,    5.6,    5.3,    5.0,    4.2,    4.4,    4.1,    3.8,    4.5,    4.2,    4.0,    3.5,    3.5,    4.0,    4.3,    4.7,    4.3,    4.2,    3.6,    2.9,    2.1,    1.4,    1.0,    0.4,  999.0,  999.0,   -0.6,   -0.9,   -1.7,   -3.0,   -3.8,   -4.0,   -4.0,   -3.8,   -3.5,   -3.3,   -3.0,   -3.3,   -4.1,   -4.4,   -4.1,   -3.8,   -3.8,   -3.4,   -3.1,   -3.6,   -4.1,   -4.4,   -4.8,   -5.4,   -6.0,   -6.0,   -5.9,   -5.9,   -5.8,   -5.3,   -5.2,   -5.2,   -5.2,   -5.4,   -5.8,   -6.0,   -6.0,   -6.4,   -6.7,   -7.0,   -7.2,   -7.0,   -6.9,   -7.0,   -7.8,   -8.5,   -8.7,   -8.2,   -8.0,   -7.7
2010/12/08 17:20,    0.6,    1.2,    1.7,    2.4,    3.0,    3.9,    4.9,    6.0,    6.9,    7.0,    5.8,    5.7,    6.4,    7.1,    8.4,    9.3,    9.1,    8.6,    7.6,    7.2,    6.9,    6.0,    5.1,    5.0,    5.1,    5.1,    4.5,    3.6,    3.5,    3.7,    3.4,    3.4,    3.0,    3.2,    2.9,    3.5,    3.9,    4.2,    3.9,    4.1,    4.2,    3.7,    3.4,    3.1,    2.0,    0.6,   -0.4,   -1.0,   -1.0,   -1.1,   -1.7,   -2.8,   -3.9,   -4.3,   -4.2,   -4.1,   -3.9,   -3.5,   -3.5,   -4.1,   -4.6,   -4.7,   -4.2,   -4.0,   -3.8,   -3.6,   -3.6,   -4.0,   -4.2,   -4.8,   -5.2,   -5.5,   -5.7,   -5.6,   -5.6,   -5.2,   -4.7,   -4.6,   -4.5,   -4.5,   -4.5,   -4.9,   -5.7,   -6.0,   -6.3,   -6.4,   -6.8,   -7.1,   -6.8,   -7.0,   -7.2,   -7.8,   -8.1,  999.0,  999.0,   -7.1,   -7.0,   -7.2
2010/12/08 17:30,    1.0,    1.5,    2.2,    3.1,    4.0,    4.8,    6.0,    6.1,    6.2,    5.2,    4.4,    4.3,    5.6,    6.1,    6.8,    6.9,    7.0,    7.5,    6.8,    6.6,    6.4,    5.7,    4.8,    4.2,    4.3,    4.9,    4.5,    3.7,    3.9,    4.0,    3.5,    3.6,    3.6,    3.8,    4.1,    4.6,    5.0,    4.6,    4.1,    4.0,    4.2,    4.3,    4.1,    3.4,    2.4,    0.9,   -0.6,   -1.4,   -1.8,   -2.1,   -2.6,   -3.6,   -4.3,   -4.4,   -4.2,   -4.2,   -4.1,   -3.9,   -3.9,   -4.4,   -4.7,   -4.3,  999.0,   -4.1,  999.0,  999.0,  999.0,  999.0,  999.0,  999.0,   -4.9,   -5.3,   -5.4,   -4.5,   -4.8,   -5.2,   -5.5,   -5.6,   -5.2,  999.0,   -4.5,  999.0,  999.0,  999.0,  999.0,  999.0,  999.0,  999.0,  999.0,  999.0,  999.0,  999.0,  999.0,  999.0,  999.0,  999.0,  999.0,  999.0
2010/12/08 17:40,    0.8,    1.5,    2.1,    2.9,    3.6,    5.1,    6.2,    6.2,    6.1,    4.5,    3.9,    4.0,    4.6,    5.6,    6.2,    7.8,    8.4,    7.6,    5.8,    5.9,    5.9,    5.8,    4.6,    4.3,    4.7,    4.7,    4.1,    3.6,    3.8,    3.7,    3.3,    3.3,    3.6,    4.0,    4.5,    4.8,    4.3,    4.1,    4.1,    4.4,    4.2,    3.3,    2.8,    2.0,    0.8,   -0.9,   -1.6,   -1.8,   -2.4,   -2.5,   -3.2,   -3.8,   -4.3,   -3.8,   -3.6,  999.0,  999.0,  999.0,  999.0,  999.0,  999.0,  999.0,  999.0,  999.0,  999.0,  999.0,  999.0,  999.0,  999.0,   -3.5,   -3.6,   -4.0,   -4.3,   -4.6,   -4.7,   -5.0,   -5.3,   -5.6,   -4.6,   -4.1,  999.0,  999.0,  999.0,  999.0,  999.0,  999.0,  999.0,  999.0,  999.0,  999.0,  999.0,  999.0,  999.0,  999.0,  999.0,  999.0,  999.0,  999.0
2010/12/08 17:50,  999.0,  999.0,  999.0,    3.2,    4.2,    6.0,    6.6,    7.2,    6.4,    6.3,    6.0,    7.2,    5.9,    7.1,    7.9,    9.1,    7.8,    6.7,    6.0,  999.0,    5.9,    4.7,    4.0,    3.8,    4.6,    3.9,    3.7,    3.6,    3.6,    3.3,    2.8,    3.1,    3.4,    4.1,    4.4,    4.2,    4.4,    4.7,    4.7,    5.2,    5.4,  999.0,    2.3,    2.1,   -0.6,  999.0,  999.0,  999.0,  999.0,  999.0,  999.0,  999.0,  999.0,  999.0,  999.0,  999.0,  999.0,  999.0,  999.0,  999.0,  999.0,  999.0,  999.0,  999.0,  999.0,  999.0,  999.0,  999.0,   -2.9,   -3.3,   -3.6,   -4.0,   -4.8,   -5.4,   -5.6,   -5.6,   -5.7,   -5.4,   -4.8,   -4.5,   -3.7,  999.0,  999.0,  999.0,  999.0,  999.0,  999.0,  999.0,  999.0,  999.0,  999.0,  999.0,  999.0,  999.0,  999.0,  999.0,  999.0,  999.0
2010/12/08 18:00,  999.0,  999.0,    1.1,    3.5,    4.4,    6.4,    6.7,    7.1,    6.9,    6.2,    5.4,    5.7,    6.7,    7.5,    8.1,    8.3,    7.9,    6.3,    5.9,    5.4,    3.9,    3.8,    3.8,    4.0,    4.0,    3.7,    3.5,    3.4,    3.2,    3.1,    2.7,    3.2,    3.5,    3.7,    4.2,    4.0,    4.7,    5.0,    4.8,    5.0,  999.0,    2.3,    1.9,  999.0,   -1.1,   -1.6,  999.0,  999.0,  999.0,  999.0,  999.0,  999.0,  999.0,  999.0,  999.0,  999.0,  999.0,  999.0,  999.0,    0.0,  999.0,  999.0,  999.0,  999.0,  999.0,  999.0,  999.0,  999.0,  999.0,  999.0,  999.0,  999.0,   -4.9,   -5.3,   -5.7,   -5.7,   -6.0,   -5.7,   -5.1,   -4.3,   -3.8,   -4.2,   -4.6,  999.0,  999.0,  999.0,  999.0,  999.0,  999.0,  999.0,  999.0,  999.0,  999.0,  999.0,  999.0,  999.0,  999.0,  999.0
2010/12/08 18:10,  999.0,  999.0,  999.0,    3.8,    4.7,    6.4,    6.9,    7.1,    7.1,    6.8,    6.0,    5.9,    6.8,    7.6,    8.1,    7.8,    7.5,    6.1,    5.0,    4.6,    3.2,    3.3,    3.8,    3.9,    3.7,    3.4,    3.3,    3.2,    2.9,    2.5,    2.3,    2.7,    3.1,    3.4,    3.8,    4.2,    4.9,    4.9,    4.8,    4.5,    4.3,    2.6,    1.6,    0.3,  999.0,  999.0,  999.0,  999.0,  999.0,  999.0,    0.1,  999.0,  999.0,  999.0,  999.0,  999.0,  999.0,  999.0,  999.0,  999.0,  999.0,  999.0,  999.0,  999.0,  999.0,  999.0,  999.0,  999.0,  999.0,  999.0,  999.0,  999.0,  999.0,   -5.7,   -6.1,   -6.5,   -6.6,   -6.6,   -6.3,   -6.0,   -5.6,  999.0,  999.0,  999.0,  999.0,  999.0,  999.0,  999.0,  999.0,  999.0,  999.0,  999.0,  999.0,  999.0,  999.0,  999.0,  999.0,  999.0
2010/12/08 18:20,    0.9,  999.0,  999.0,  999.0,  999.0,    6.0,    6.0,    6.8,    6.6,    6.5,    5.7,    5.4,    6.3,    7.2,    7.4,    7.1,    7.2,    6.3,    5.7,    5.4,    4.8,    3.9,    3.4,    3.7,    3.9,    3.4,    3.4,    3.3,    3.2,    2.7,    2.7,    2.8,    2.8,    3.1,    3.5,    4.1,    4.5,    4.3,  999.0,    3.7,  999.0,  999.0,    0.0,   -0.4,   -1.0,   -1.1,   -1.3,   -0.4,   -0.1,   -0.1,  999.0,  999.0,  999.0,  999.0,    0.1,  999.0,  999.0,  999.0,    0.3,  999.0,  999.0,  999.0,   -0.0,  999.0,  999.0,  999.0,  999.0,  999.0,   -2.9,   -2.6,   -2.9,   -3.6,   -4.4,   -4.8,   -5.2,   -5.7,   -5.9,   -6.0,   -6.2,   -6.1,   -6.0,   -6.1,   -5.7,   -4.9,  999.0,  999.0,  999.0,  999.0,  999.0,  999.0,  999.0,  999.0,   -5.5,   -5.3,   -6.0,   -6.7,   -7.2,   -7.3
2010/12/08 18:30,  999.0,  999.0,  999.0,    4.5,    5.2,    6.1,    6.5,    6.3,    6.2,    6.0,    4.9,    5.3,    6.1,    6.6,    6.5,    6.7,    7.0,    6.8,    6.0,    5.2,    5.1,    4.7,    4.3,    4.3,    4.2,    3.4,    3.4,    3.6,    3.4,    3.5,    3.4,    3.3,    3.6,    3.3,    3.6,    4.3,    4.8,  999.0,  999.0,    3.8,    3.9,  999.0,    1.0,   -0.7,   -1.3,   -1.2,  999.0,  999.0,    0.0,   -0.3,   -0.4,   -0.4,  999.0,   -0.4,  999.0,    0.0,  999.0,  999.0,    0.1,   -0.1,  999.0,  999.0,  999.0,  999.0,  999.0,  999.0,   -3.3,   -3.5,   -3.5,   -3.5,   -4.0,   -4.8,   -5.6,   -6.1,   -6.5,   -6.8,   -6.9,   -6.7,  999.0,  999.0,  999.0,  999.0,   -7.2,   -7.0,   -6.4,   -6.0,   -5.9,   -6.4,   -6.7,   -6.8,   -6.9,   -6.9,   -6.7,   -6.4,   -6.3,   -6.7,   -7.1,   -7.2
2010/12/08 18:40,  999.0,  999.0,    2.9,    3.7,    4.6,    5.0,    5.2,    5.4,  999.0,  999.0,    4.5,    5.6,    6.1,    6.8,    7.2,    7.1,    6.8,    6.6,    6.5,    6.4,    6.3,    5.6,    5.3,    4.7,    4.3,    4.3,    4.1,    4.3,    4.2,    4.0,    3.9,    4.1,    4.1,    4.1,    3.9,    3.2,    3.5,    3.8,    3.5,    3.1,    2.6,    2.5,    0.8,    0.1,   -0.3,   -0.5,   -0.3,   -0.3,   -0.2,   -0.5,   -0.2,   -0.0,   -0.2,   -0.0,   -0.1,    0.0,  999.0,  999.0,  999.0,   -2.8,   -2.9,   -2.4,   -2.2,   -2.1,   -2.4,   -2.7,   -3.4,   -3.7,   -3.8,   -3.3,   -3.6,   -4.3,   -5.3,   -5.4,   -6.0,   -6.5,   -6.6,   -6.6,   -7.4,   -7.9,   -7.6,   -7.0,   -6.9,   -7.1,   -7.2,   -7.0,   -6.8,   -6.4,   -6.1,   -6.0,   -6.1,   -6.1,   -6.1,   -6.0,   -5.7,   -5.6,   -5.7,   -6.1
2010/12/08 18:50,  999.0,  999.0,    1.9,    3.3,  999.0,    4.2,  999.0,    5.5,    5.1,    5.2,    5.2,    6.1,    6.8,    7.3,    7.7,    7.7,    7.2,    7.0,    7.0,    7.0,    6.9,    6.5,    6.1,    5.2,    4.7,    4.5,    4.0,    4.0,    4.5,    4.0,    3.8,    4.1,    4.1,    4.2,    4.3,    3.5,  999.0,    3.4,    3.5,    2.8,    2.2,    2.0,    0.9,   -0.1,    0.0,  999.0,  999.0,   -0.4,   -0.7,   -1.0,   -1.2,   -1.5,   -1.7,   -2.6,   -2.5,   -3.1,   -3.0,   -3.3,   -3.2,   -3.1,   -3.2,   -3.1,   -3.0,   -3.1,   -3.0,   -3.0,   -3.1,   -3.1,   -3.0,   -3.2,   -4.0,   -4.8,   -5.3,   -5.6,   -5.4,   -5.5,   -5.6,   -5.8,   -6.2,   -6.4,   -6.1,   -5.8,   -5.8,   -6.1,   -6.3,   -6.2,   -6.1,   -5.9,   -5.5,   -5.2,   -5.0,   -5.0,   -4.8,   -4.7,   -4.5,   -4.6,   -4.9,   -5.4
2010/12/08 19:00,  999.0,  999.0,  999.0,    3.8,    4.7,  999.0,    6.1,  999.0,    6.1,    5.8,    5.5,    5.5,    5.8,    6.6,    7.1,  999.0,    8.7,    8.2,    8.0,    7.7,    7.0,    6.9,    6.4,    5.8,    5.1,    4.5,    4.0,    3.4,    3.4,    4.0,    3.4,    3.5,    3.4,    3.3,    3.2,    2.6,  999.0,    1.9,    2.8,  999.0,    1.5,    1.4,  999.0,  999.0,  999.0,  999.0,  999.0,   -1.4,   -1.8,   -2.1,   -2.2,   -2.0,   -2.7,   -3.1,   -3.5,   -3.2,   -3.2,   -3.3,   -3.0,   -2.9,   -2.3,   -2.2,   -1.9,   -2.2,   -2.5,   -2.9,   -3.0,   -2.9,   -2.7,   -3.2,   -3.9,   -4.7,   -4.9,   -5.1,   -5.2,   -4.8,   -4.9,   -4.9,   -5.2,   -5.5,   -5.6,   -5.2,   -5.2,   -5.5,   -5.4,   -5.5,   -5.6,   -5.4,   -5.0,   -4.8,   -4.5,   -4.5,   -4.5,   -4.5,   -4.3,   -4.1,   -4.1,   -4.1
2010/12/08 19:10,  999.0,  999.0,  999.0,    3.2,    4.2,    5.1,    5.7,    5.6,    5.5,    5.2,    5.4,    5.2,    6.1,    7.0,    7.8,    7.7,    7.5,    7.3,    6.2,    5.4,    5.5,    6.0,    5.7,    5.6,    5.2,    4.6,    4.5,    4.2,    4.2,    4.8,    2.8,    2.1,    2.1,   -1.4,   -0.4,  999.0,   -2.0,   -2.8,   -2.9,   -4.7,   -5.7,  999.0,  999.0,  999.0,   -1.3,   -2.7,  999.0,   -1.4,   -1.3,   -1.6,   -1.3,   -1.4,   -1.6,   -1.8,   -2.4,   -2.5,   -2.0,   -2.1,   -2.1,   -2.1,   -2.2,   -2.1,   -2.2,   -2.3,   -2.7,   -2.9,   -3.0,   -3.1,   -3.3,   -4.0,   -4.7,   -5.0,   -5.0,   -5.2,   -5.3,   -5.3,   -5.2,   -5.2,   -5.3,   -5.5,   -5.4,   -5.0,   -4.9,   -5.2,   -5.5,   -5.5,   -5.3,   -5.2,   -5.4,   -5.6,   -5.7,   -5.7,   -5.7,   -5.5,   -5.5,   -5.2,   -4.8,   -4.5
2010/12/08 19:20,  999.0,  999.0,  999.0,    1.2,    2.8,    4.1,    4.9,  999.0,    4.4,    4.3,    4.0,    4.0,    4.3,    6.0,    6.4,    7.2,    7.5,    7.8,  999.0,  999.0,  999.0,  999.0,   -1.2,   -1.3,   -1.3,  999.0,  999.0,  999.0,  999.0,    1.7,    5.3,    2.3,    2.4,    2.3,    2.5,    5.6,    5.0,    4.8,    4.7,    3.6,    2.4,    2.2,    1.7,    1.0,    0.4,    0.0,  999.0,  999.0,  999.0,   -0.9,   -1.0,   -1.0,   -0.9,   -1.3,   -1.7,   -2.0,   -1.6,   -1.6,   -1.6,   -1.6,   -1.5,   -1.4,   -1.4,   -1.8,   -2.3,   -2.5,   -2.6,   -2.6,   -2.5,   -2.8,   -3.6,   -4.1,   -4.2,   -4.2,   -4.4,   -4.4,   -4.1,   -3.9,   -4.1,   -4.0,   -3.8,   -3.8,   -4.0,   -4.4,   -4.9,   -4.9,   -4.9,   -5.0,   -5.2,   -5.3,   -5.4,   -5.4,   -5.4,   -5.5,   -5.5,   -5.4,   -5.4,   -5.2
2010/12/08 19:30,  999.0,  999.0,  999.0,  999.0,  999.0,  999.0,    3.6,    4.4,    3.3,    3.0,    3.0,    2.5,    3.3,    4.0,    2.2,    5.8,    6.1,  999.0,    5.9,  999.0,    3.8,  999.0,  999.0,    4.5,    4.2,  999.0,    3.5,    3.6,    4.0,  999.0,  999.0,  999.0,  999.0,  999.0,  999.0,  999.0,    5.4,    5.1,  999.0,  999.0,  999.0,  999.0,  999.0,  999.0,  999.0,    0.7,  999.0,  999.0,  999.0,  999.0,    0.8,    0.5,  999.0,  999.0,   -0.6,   -1.1,   -0.9,  999.0,   -0.8,   -1.2,   -1.3,   -1.2,   -1.2,   -1.2,   -1.9,   -2.3,   -2.7,   -2.8,   -2.7,   -2.6,   -3.1,   -3.6,   -3.9,   -4.2,   -4.2,   -4.1,   -3.8,   -3.5,   -3.5,   -3.7,   -4.0,   -4.7,   -5.5,   -6.0,   -6.2,   -6.3,   -6.2,   -6.3,   -6.4,   -6.4,   -6.4,   -6.5,   -6.4,   -6.4,   -6.3,   -6.3,   -6.4,   -6.0
2010/12/08 19:40,  999.0,  999.0,  999.0,  999.0,  999.0,  999.0,  999.0,  999.0,   -4.7,  999.0,  -12.8,  -12.2,  -23.6,  999.0,  999.0,  999.0,  -22.0,  999.0,  999.0,  999.0,  999.0,  999.0,  999.0,    1.8,  999.0,  999.0,    1.7,  999.0,  999.0,  999.0,    0.1,  999.0,  999.0,  999.0,    1.0,    1.4,  999.0,  999.0,  999.0,  999.0,  999.0,   -2.3,  999.0,  999.0,  999.0,  999.0,  999.0,  999.0,  999.0,    2.4,    2.3,    2.2,    0.7,   -1.4,   -1.8,  999.0,   -1.6,   -2.4,   -4.1,   -5.1,   -3.6,   -4.7,   -4.7,   -2.2,   -3.6,  999.0,   -3.9,   -3.8,  999.0,   -2.8,  999.0,  999.0,  999.0,   -3.3,   -2.5,   -4.7,   -4.9,   -5.1,   -5.7,   -5.9,   -5.3,   -4.8,   -5.2,   -6.0,   -6.5,   -6.5,   -6.3,   -6.0,   -6.0,   -6.2,   -6.5,   -6.6,   -6.6,   -6.6,   -6.8,   -6.9,   -7.3,   -7.3
2010/12/08 19:50,  999.0,  999.0,  999.0,  999.0,  999.0,  999.0,  999.0,  999.0,  -26.2,  -27.1,  -28.0,  -27.6,  -26.5,  -27.7,  -28.3,  999.0,  -28.4,  999.0,  999.0,  999.0,    4.5,    4.4,    5.2,    5.1,  999.0,  999.0,  999.0,  -15.1,   -7.6,   -8.3,   -5.4,  -12.8,  999.0,    1.8,  999.0,  999.0,   -3.8,   -3.3,   -1.1,   -4.4,   -1.7,   -4.2,   -5.7,  999.0,  999.0,   -2.0,   -2.1,   -2.3,   -2.6,   -3.2,   -2.1,   -1.8,   -2.0,   -1.8,   -1.8,   -2.9,   -2.6,   -2.8,   -2.9,   -2.7,   -2.7,   -3.0,   -2.9,   -2.8,   -3.4,   -3.7,   -3.8,   -3.6,   -3.1,   -2.8,   -2.7,   -3.0,   -3.1,   -2.9,   -2.8,   -2.9,   -3.1,   -3.4,   -3.7,   -3.7,   -3.5,   -3.6,   -4.0,   -4.3,   -4.7,   -5.2,   -5.7,   -5.8,   -5.9,   -5.9,   -5.9,   -5.9,   -5.9,   -5.9,   -6.2,   -6.1,   -6.1,   -6.3
2010/12/08 20:00,  999.0,  999.0,  999.0,  999.0,    5.1,  999.0,  -11.3,  -10.6,  -11.1,  -10.7,  -15.2,  -14.4,  -14.1,  -14.2,  -16.7,  -14.5,  -11.4,   -2.7,    5.4,    5.0,    4.7,    4.6,    5.3,    5.9,   -9.7,   -8.5,   -7.6,   -6.6,  -10.8,   -6.9,   -9.5,  -12.0,  999.0,  999.0,  999.0,  999.0,  999.0,  999.0,   -6.1,  999.0,  999.0,  999.0,  999.0,  999.0,   -8.4,   -7.4,   -7.2,   -6.1,   -8.5,   -9.1,   -7.7,  -11.8,  999.0,  999.0,  -11.3,  -11.6,  -10.6,  -10.2,   -9.5,   -7.5,   -6.9,  999.0,   -1.7,   -1.8,   -1.7,   -2.4,   -3.1,   -3.7,   -3.4,   -3.2,   -3.3,   -3.4,   -4.1,   -3.8,   -3.6,   -3.8,   -3.8,   -4.0,   -4.4,   -4.4,   -4.6,   -4.5,   -4.6,   -4.7,   -4.9,   -4.8,   -4.8,   -5.0,   -5.2,   -5.4,   -5.5,   -5.5,   -5.8,   -6.1,   -6.4,   -6.6,   -6.8,   -6.9
2010/12/08 20:10,  999.0,  999.0,  999.0,    5.4,    5.5,    5.0,    5.5,    5.6,    6.2,    5.8,    6.7,    6.6,    6.7,    7.4,    7.6,    8.1,    7.6,    6.9,    6.9,    7.4,    7.9,    8.0,    7.2,    5.8,    6.7,    7.3,    6.3,    4.8,  999.0,    4.4,    4.5,    3.3,    2.5,    0.3,   -1.4,   -2.6,   -2.4,   -2.9,   -2.3,   -1.4,   -1.2,   -2.7,   -2.7,   -2.4,   -1.5,   -2.4,   -3.3,   -3.7,   -4.1,   -3.3,   -2.5,  999.0,   -3.5,   -4.2,   -4.5,   -4.3,   -3.2,   -2.7,   -2.5,   -2.1,   -3.0,   -2.5,   -3.0,   -4.0,   -4.0,   -4.3,   -4.5,   -4.6,   -4.6,   -4.5,   -4.4,   -4.8,   -5.1,   -5.1,   -4.8,   -4.8,   -4.8,   -4.7,   -5.1,   -5.0,   -4.9,   -5.2,   -4.9,   -4.8,   -4.8,   -4.5,   -4.7,   -5.0,   -5.4,   -5.6,   -5.7,   -5.6,   -5.6,   -6.0,   -6.2,   -6.6,   -7.0,   -7.1
2010/12/08 20:20,  999.0,  999.0,  999.0,    6.0,    7.0,    8.0,    8.7,    2.3,    7.8,    6.4,    5.9,    6.5,    6.4,    5.9,  999.0,    3.7,    3.4,    5.0,    5.3,    4.5,    4.3,    6.0,    4.9,  999.0,  999.0,    1.9,    1.4,    1.5,    1.9,    3.9,  999.0,  999.0,  999.0,  999.0,  999.0,  999.0,    1.0,    1.7,    1.0,    0.7,    0.5,    0.1,   -0.1,   -0.2,   -1.2,   -2.3,   -2.8,   -2.8,   -1.6,   -1.8,   -1.9,   -2.6,   -4.1,   -4.7,   -5.8,   -6.7,   -6.9,   -7.3,   -6.7,   -6.5,   -6.2,   -5.9,   -5.4,   -5.6,   -6.0,   -4.9,   -4.4,   -4.1,   -3.4,   -3.0,   -2.2,   -2.3,   -1.9,   -1.9,   -1.9,   -1.3,   -1.0,   -1.3,   -1.6,   -2.3,  999.0,   -4.2,   -4.7,   -5.4,   -6.0,   -6.0,   -6.3,   -6.4,   -6.4,   -6.5,   -6.5,   -5.8,   -6.1,   -6.2,   -6.4,   -6.8,   -7.5,   -8.0
2010/12/08 20:30,  999.0,  999.0,  999.0,  999.0,  999.0,  999.0,  999.0,  999.0,  999.0,  999.0,  999.0,  -18.2,  -20.3,  -13.8,  999.0,  999.0,    5.7,    5.9,    5.8,    5.5,    4.9,    5.6,    5.7,    5.6,    5.8,    5.9,    7.1,    3.8,    6.9,    5.4,    8.4,    6.8,    7.8,    6.2,    6.3,    4.4,    6.2,    6.4,    2.6,    3.6,    2.7,    3.0,    2.0,    1.0,   -1.6,   -1.6,   -1.1,   -0.9,   -1.0,   -1.1,   -1.4,   -1.7,   -2.2,   -3.3,   -3.4,   -3.5,   -3.7,   -3.9,   -3.8,   -3.6,   -3.2,   -3.5,   -3.8,   -3.9,   -4.3,   -4.5,   -5.0,   -5.1,   -5.3,   -5.5,   -5.6,   -6.0,   -6.2,   -6.3,   -6.3,   -6.3,   -6.9,   -7.6,   -8.0,   -8.3,   -8.3,   -8.5,   -8.7,   -8.9,   -9.3,   -9.7,   -9.6,   -9.3,   -8.3,   -7.8,   -6.4,   -6.5,   -6.3,   -6.5,   -6.8,   -7.0,   -7.1,   -7.2
2010/12/08 20:40,  999.0,  999.0,  999.0,  999.0,  999.0,  999.0,    4.8,    5.0,    5.6,    5.2,    5.4,    6.2,    5.1,    5.8,    5.8,    5.4,    4.5,    4.8,    4.5,    4.2,    4.1,    4.1,    4.6,    6.0,    7.3,    8.1,    8.1,    8.5,    9.6,    9.6,    9.4,   10.6,   12.5,  999.0,   10.6,    9.5,    8.6,    7.9,    7.7,    8.8,   12.0,   15.0,   10.7,   11.2,    7.4,    5.5,    4.2,    3.1,    3.0,  999.0,  999.0,  999.0,    0.3,    0.3,   -1.1,   -2.6,   -2.1,   -0.9,   -1.4,   -1.6,   -3.4,   -1.7,   -3.4,   -3.9,   -3.1,   -3.9,   -4.1,   -5.8,   -5.6,   -5.5,   -6.3,   -6.4,   -7.4,   -7.1,   -7.5,   -7.8,   -7.5,   -7.7,   -8.9,   -9.1,   -9.1,   -9.3,   -9.6,   -7.4,   -6.7,   -6.9,   -7.3,   -7.4,   -7.8,   -7.8,   -8.0,   -7.7,   -7.5,   -7.4,   -7.1,   -7.2,   -7.6,   -8.4
2010/12/08 20:50,  999.0,   -0.3,    1.6,    2.7,    2.5,    0.3,    0.8,    1.6,    2.4,    2.7,    5.1,    5.1,    4.8,    5.5,    6.0,    6.3,    6.6,    6.4,    4.9,    3.7,    3.9,    3.6,    3.9,    4.8,    5.6,    6.5,    6.2,    7.7,    8.0,    9.0,    9.7,    9.1,    9.5,  999.0,    8.9,    8.0,    8.4,    7.3,    7.1,    6.5,    5.5,    5.2,    4.9,    4.3,    4.5,    4.3,    3.8,    3.1,    2.8,    1.7,    0.5,   -0.6,   -1.0,   -2.1,   -3.9,   -4.9,   -5.9,   -6.3,   -6.8,   -7.0,   -7.0,   -6.6,   -6.7,   -6.4,   -6.0,   -5.3,   -4.7,   -4.6,   -4.8,   -5.0,   -4.9,   -4.4,   -4.7,   -3.9,   -3.6,   -3.6,   -4.2,   -4.4,   -4.6,   -5.0,   -5.3,   -5.4,   -6.0,   -6.3,   -6.6,   -6.8,   -6.8,   -6.6,   -6.7,   -6.6,   -6.8,   -6.8,   -6.5,   -6.0,   -5.6,   -5.5,   -5.8,   -6.2
2010/12/08 21:00,  999.0,   -0.2,    2.3,    3.8,    2.0,    0.4,   -0.7,    0.1,    1.1,    0.7,    2.4,    2.2,    3.5,    4.6,    5.4,    6.1,    6.9,    8.3,    8.8,    8.9,  999.0,  999.0,  999.0,  -10.0,  999.0,  999.0,  999.0,    6.4,    6.8,    7.2,   -2.3,   -2.7,  -11.9,   -6.0,  -12.3,  999.0,  999.0,  999.0,    5.3,    5.4,    4.4,    5.4,  999.0,    4.5,    3.7,  999.0,    2.0,    1.5,    1.0,    0.4,   -0.1,   -0.3,   -0.7,   -1.8,   -3.4,   -4.9,   -5.4,   -5.5,   -5.6,   -5.7,   -5.7,   -5.5,   -5.3,   -5.1,   -4.8,   -4.6,   -4.5,   -4.4,   -4.2,   -3.9,   -3.5,   -3.5,   -3.5,   -3.5,   -3.6,   -4.0,   -4.6,   -5.1,   -5.2,   -5.6,   -5.5,   -5.2,   -5.2,   -5.0,   -4.9,   -4.5,   -4.4,   -4.2,   -4.4,   -5.3,   -5.6,   -6.0,   -6.3,   -6.4,   -6.4,   -6.9,   -7.3,   -7.3
2010/12/08 21:10,   -0.3,    0.8,    3.1,    2.5,   -0.0,   -0.6,   -1.1,   -1.3,    0.4,    0.9,    1.2,    1.8,    2.6,    2.3,    3.3,    4.2,    4.1,    5.1,    6.5,  999.0,  999.0,  999.0,  999.0,  -25.8,  -25.8,  -26.3,  -26.3,  -26.7,  -26.5,  -25.9,  -26.1,  -26.8,  -27.5,  -28.3,  -28.9,  999.0,  999.0,  999.0,  999.0,  999.0,  999.0,  999.0,  999.0,  999.0,  999.0,    2.2,    2.1,    1.6,    1.4,    1.3,    0.9,   -0.0,   -1.3,   -2.5,   -4.1,   -5.0,   -5.0,   -5.1,   -5.2,   -5.1,   -4.8,   -4.6,   -4.3,   -4.3,   -4.1,   -4.0,   -4.1,   -4.5,   -5.0,   -5.2,   -4.9,   -4.7,   -4.6,   -5.0,   -5.4,   -5.7,   -5.9,   -5.9,   -5.9,   -6.2,   -6.4,   -6.7,   -6.5,   -6.4,   -6.2,   -6.0,   -5.9,   -6.0,   -6.3,   -6.4,   -6.8,   -6.6,   -6.1,   -5.9,   -5.9,   -5.9,   -6.0,   -5.8
2010/12/08 21:20,  999.0,  999.0,    2.4,    1.6,   -0.5,   -0.3,  999.0,    2.6,    3.4,    3.8,    5.0,    4.6,    4.1,    3.4,    3.1,    2.7,    2.8,    3.3,    3.8,    5.2,    6.8,  999.0,  999.0,  999.0,  999.0,  -25.9,  -26.8,  -27.4,  -27.4,  -27.3,  -27.5,  -27.9,  -28.1,  -27.0,  999.0,  999.0,  999.0,  999.0,  999.0,  999.0,  999.0,  999.0,  999.0,    2.5,    2.1,    2.1,  999.0,    1.6,    1.6,    1.2,    0.4,   -0.9,   -2.6,   -3.3,   -2.8,   -2.8,   -3.1,   -3.4,   -3.5,   -3.5,   -3.7,   -4.0,   -4.3,   -4.9,   -5.1,   -4.3,   -4.2,   -4.2,   -4.8,   -5.2,   -5.2,   -5.2,   -5.0,   -5.0,   -4.7,   -4.5,   -4.5,   -4.8,   -4.4,   -4.5,   -4.6,   -5.2,   -6.5,   -6.8,   -6.7,   -7.0,   -7.0,   -7.2,   -7.4,   -7.4,   -7.5,   -7.7,   -8.0,   -8.3,   -8.6,   -8.8,   -8.9,   -8.4
2010/12/08 21:30,    1.8,    1.2,    1.6,    1.0,    0.4,    1.1,    2.5,    3.4,    4.5,    5.8,    5.9,    6.1,    5.9,    5.5,    5.9,    5.9,    5.7,    5.2,    4.7,    4.8,    6.1,    7.5,    8.1,  999.0,  999.0,  -24.4,  -25.6,  -26.2,  -15.5,  999.0,  999.0,  999.0,  999.0,  -10.9,  -10.6,   -1.1,   -5.5,    4.7,    4.1,    4.3,    2.6,    1.8,    1.7,    3.0,    2.8,    2.5,    2.0,  999.0,    0.7,   -1.8,   -2.6,   -2.7,   -2.8,   -3.2,   -3.2,   -3.4,   -3.8,   -4.3,   -4.8,   -5.2,   -5.5,   -5.5,   -5.8,   -5.7,   -5.5,   -5.3,   -5.2,   -5.4,   -5.7,   -6.2,   -6.2,   -6.1,   -5.9,   -5.8,   -5.5,   -5.3,   -5.5,   -6.1,   -5.7,   -5.8,   -6.5,   -6.8,   -6.5,   -6.6,   -6.8,   -7.0,   -7.0,   -7.1,   -7.3,   -7.1,   -6.9,   -6.6,   -6.2,   -6.1,   -6.1,   -6.2,   -6.4,   -6.4
2010/12/08 21:40,    0.0,   -0.6,   -1.5,   -1.2,    0.9,    1.4,    2.2,    3.5,    5.0,    5.7,    4.8,    5.7,  999.0,    6.9,    6.9,    7.9,    9.2,    8.7,    8.2,    7.0,    6.6,    6.2,    6.3,    7.1,    9.4,    9.6,    8.8,    7.7,    7.1,    6.2,    5.3,    4.4,    4.0,    3.4,    3.1,    2.8,    2.6,    1.8,    1.3,    1.1,    0.6,    1.0,    0.5,    1.6,    1.7,    1.2,  999.0,  999.0,    0.7,    0.1,   -1.1,   -1.8,   -2.7,   -3.2,   -3.4,   -3.7,   -4.2,   -4.7,   -5.2,   -5.5,   -5.7,   -5.8,   -5.8,   -5.8,   -5.7,   -5.9,   -5.9,   -6.0,   -6.0,   -6.2,   -6.1,   -5.9,   -5.8,   -6.1,   -6.0,   -6.3,   -6.7,   -6.9,   -6.9,   -6.7,   -6.5,   -6.5,   -6.5,   -6.8,   -7.1,   -7.4,   -7.4,   -7.5,   -7.6,   -7.3,   -7.2,   -7.0,   -7.1,   -7.4,   -7.7,   -7.7,   -7.4,   -7.0
2010/12/08 21:50,   -0.6,   -1.2,   -1.9,   -0.4,    0.8,    1.9,    3.5,    5.4,    4.9,    6.5,    7.0,    5.7,    5.2,    4.7,    5.7,    6.3,    5.9,    6.4,    6.0,    5.0,    5.7,  999.0,    5.2,    4.3,    4.2,    6.0,    7.7,    7.2,    6.8,    5.5,    4.9,    4.1,    4.0,    3.6,    3.0,    1.7,    1.8,    2.1,    1.3,    0.9,   -0.1,   -0.1,    0.2,    0.8,    1.0,  999.0,  999.0,  999.0,  999.0,   -0.6,   -1.6,   -3.0,   -3.6,   -3.5,   -3.6,   -4.1,   -4.5,   -4.8,   -4.9,   -5.2,   -5.2,   -5.2,   -5.2,   -5.3,   -6.0,   -6.4,   -6.3,   -6.3,   -6.3,   -5.9,   -5.5,   -5.3,   -5.4,   -5.5,   -5.6,   -5.7,   -6.0,   -6.4,   -6.4,   -6.4,   -6.5,   -6.7,   -6.9,   -7.2,   -7.5,   -7.6,   -7.6,   -7.6,   -7.4,   -7.3,   -7.4,   -7.4,   -7.5,   -7.6,   -7.4,  999.0,  999.0,  999.0
2010/12/08 22:00,   -1.0,   -1.9,   -2.0,   -0.1,    0.7,    1.5,    2.6,    3.4,    4.4,    6.1,    7.2,    7.5,    7.0,    5.9,    5.5,    4.5,    5.0,    5.1,    7.1,    8.9,    9.0,    7.5,    6.6,    5.4,    5.3,    6.5,    6.2,    6.9,    6.8,    7.1,    6.3,    5.4,    4.9,    3.6,    3.5,    3.2,    2.5,    2.5,    1.9,    1.9,    1.6,    1.4,    1.4,    1.7,    2.0,  999.0,  999.0,  999.0,  999.0,   -0.5,   -1.7,   -2.8,   -3.3,   -3.2,   -3.6,   -4.3,   -4.6,   -4.9,   -5.3,   -5.8,   -6.1,   -6.1,   -6.1,   -6.1,   -6.1,   -6.5,   -6.6,   -7.1,   -7.2,   -6.5,   -6.5,   -6.5,   -6.4,   -6.5,   -6.6,   -6.2,   -6.1,   -6.4,   -6.7,   -6.9,   -7.0,   -7.0,   -7.3,   -7.4,   -7.5,   -7.6,   -7.8,   -7.8,   -7.8,   -7.7,   -7.9,   -8.0,   -7.9,  999.0,  999.0,   -7.0,  999.0,  999.0
2010/12/08 22:10,   -1.7,   -2.5,   -1.4,   -0.0,    1.0,    1.8,    3.0,    4.8,    6.6,    7.7,    8.1,    7.3,    6.7,    6.2,    5.5,    5.0,    5.0,    4.7,    5.8,    7.0,    9.0,    8.3,    7.5,    7.5,    7.1,    6.9,    5.6,    5.3,    5.5,    5.1,    5.3,    4.4,    4.1,    4.3,    2.7,    2.1,    1.1,    0.8,    1.2,    1.1,    0.3,    1.0,    0.4,    0.9,    1.0,  999.0,  999.0,  999.0,  999.0,   -1.3,   -2.5,   -3.5,   -3.7,   -4.0,   -4.7,   -5.4,   -5.7,   -5.7,   -5.8,   -5.8,   -5.9,   -6.0,   -6.3,   -6.4,   -6.7,   -6.5,   -6.8,   -7.2,   -7.4,   -7.2,   -7.3,   -7.3,   -7.0,   -7.1,   -6.8,   -6.5,   -6.2,   -6.2,   -6.2,   -6.2,   -6.3,   -6.4,   -6.6,   -6.6,   -6.6,   -6.6,   -6.7,   -6.7,   -6.5,   -6.6,   -6.6,   -6.8,   -6.7,  999.0,   -6.8,  999.0,  999.0,  999.0
2010/12/08 22:20,   -2.2,   -2.2,   -1.4,    0.1,    0.7,    2.1,    3.3,    4.5,    6.1,    6.5,    7.0,    7.3,    7.0,    6.4,    5.9,    5.0,    4.2,    4.2,    4.6,    5.7,    8.6,    8.4,    7.4,    6.9,    6.7,    5.3,    4.9,    4.3,    3.6,    2.7,    3.5,    4.2,    3.4,    3.9,    2.7,    1.5,    1.0,    0.4,    0.7,    1.1,    1.0,   -0.1,   -0.6,    0.3,    0.2,  999.0,  999.0,  999.0,  999.0,   -2.1,   -3.2,   -4.2,   -4.4,   -4.6,   -5.1,   -5.5,   -5.6,   -5.6,   -5.8,   -5.9,   -5.8,   -5.9,   -6.2,   -6.2,   -6.1,   -6.0,   -6.2,   -6.5,   -6.6,   -6.6,   -6.3,   -6.2,   -6.0,   -6.1,   -6.2,   -6.0,   -5.8,   -5.6,   -5.7,   -5.9,   -5.7,   -5.7,   -5.8,   -5.7,   -5.6,   -5.8,   -5.7,   -5.7,   -5.7,   -5.6,   -5.7,   -5.8,   -6.1,   -6.4,   -6.2,   -6.2,  999.0,  999.0
2010/12/08 22:30,   -1.8,   -2.1,   -0.9,    0.3,    1.5,    2.6,    3.7,    4.4,    5.0,    6.3,    7.9,    8.1,    8.5,    8.7,    8.8,    7.5,    5.7,    4.9,    4.7,    4.9,    5.9,    7.2,    6.8,    7.3,    7.2,    6.2,    5.7,    5.4,    5.3,    5.0,    4.0,    4.4,    5.3,    4.2,    3.6,    2.2,    0.8,    0.2,    0.8,    1.7,    1.8,    1.3,    0.5,    0.9,   -0.4,  999.0,  999.0,  999.0,   -1.2,   -3.0,   -4.2,   -4.9,   -5.2,   -5.4,   -5.4,   -5.4,   -5.0,   -5.0,   -5.1,   -5.1,   -5.0,   -5.1,   -5.6,   -6.0,   -6.0,   -5.8,   -5.8,   -6.1,   -6.3,   -6.0,   -5.7,   -5.5,   -5.3,   -5.3,   -5.5,   -6.0,   -6.1,   -5.6,   -5.3,   -5.0,   -5.1,   -5.2,   -5.2,   -5.2,   -5.2,   -5.1,   -5.2,   -4.9,   -4.9,   -4.8,   -4.8,   -4.8,   -5.0,   -5.0,   -5.3,  999.0,  999.0,  999.0
2010/12/08 22:40,   -1.7,   -1.8,   -0.8,    0.0,    1.3,    2.3,    3.2,    3.7,    4.3,    6.3,    7.7,    8.5,    8.4,    8.0,    8.3,    7.8,    7.7,    7.1,    6.0,    5.5,    5.5,    6.9,    8.2,    8.0,    7.6,    8.0,    6.7,    5.7,    5.4,    4.9,    4.2,    3.9,    4.4,    5.2,    4.2,    2.8,    2.1,    0.8,    1.0,    1.7,    1.9,    2.0,    1.9,    2.1,    0.5,  999.0,  999.0,  999.0,   -2.3,   -3.7,   -4.1,   -4.3,   -4.4,   -4.3,   -4.2,   -4.1,   -4.2,   -4.4,   -4.3,   -4.3,   -4.4,   -4.7,   -5.1,   -5.5,   -5.9,   -6.0,   -5.6,   -5.7,   -5.8,   -5.7,   -5.3,   -4.9,   -4.7,   -4.9,   -4.9,   -5.0,   -5.2,   -5.4,   -5.1,   -4.8,   -4.9,   -4.7,   -4.4,   -4.6,   -4.6,   -4.7,   -4.7,   -4.6,   -4.6,   -4.6,   -4.5,   -4.3,   -4.3,   -4.1,   -4.4,  999.0,  999.0,  999.0
2010/12/08 22:50,   -1.4,   -0.6,    0.2,    0.8,    2.1,    3.2,    3.5,    3.4,    3.7,    5.2,    6.9,    6.9,    6.7,    8.3,    8.1,    8.4,    8.2,    8.1,    7.5,    6.5,    5.8,    7.1,    8.1,    8.8,    9.6,   10.1,   10.0,    8.3,    7.0,    5.6,    4.7,    4.0,    4.5,    5.1,    4.2,    3.2,    1.9,    1.5,    1.1,    1.3,    1.5,    1.4,    1.4,    1.3,    1.2,   -0.6,  999.0,  999.0,   -3.2,   -4.1,   -4.4,   -4.3,   -4.0,   -3.8,   -4.0,   -4.2,   -4.5,   -4.6,   -4.9,   -4.9,   -5.0,   -5.1,   -5.2,   -5.5,   -5.5,   -5.1,   -4.8,   -5.0,   -5.3,   -5.2,   -5.1,   -5.1,   -4.8,   -4.7,   -5.0,   -5.2,   -5.4,   -5.4,   -5.3,   -5.0,   -5.1,   -4.9,   -4.7,   -4.4,   -4.4,   -4.5,   -4.6,   -4.7,   -4.7,   -4.7,   -4.7,   -4.7,   -4.7,   -4.6,   -4.5,   -4.5,   -4.0,   -3.4
2010/12/08 23:00,  999.0,    1.3,    0.8,    1.7,    2.7,    3.7,    3.3,    3.2,    2.9,    3.9,    5.4,    6.6,    7.9,    8.5,    8.5,    8.9,    8.5,    7.4,    6.7,    5.1,    4.5,    6.3,    6.6,    7.4,    8.4,    8.4,    6.9,    6.6,    6.1,    5.1,    3.2,    2.8,    2.9,    3.8,    2.9,    1.4,   -0.0,   -0.2,   -0.5,   -0.3,    0.1,    0.0,    0.4,    0.0,   -0.3,   -1.5,   -2.5,  999.0,   -4.2,   -4.7,   -4.6,   -4.4,   -4.1,   -4.0,   -3.9,   -3.7,   -3.6,   -3.5,   -3.6,   -3.5,   -3.7,   -3.9,   -4.2,   -4.7,   -4.9,   -4.8,   -4.9,   -5.0,   -4.9,   -4.8,   -4.9,   -5.0,   -5.0,   -5.1,   -5.1,   -5.1,   -4.9,   -4.9,   -4.8,   -4.7,   -4.7,   -4.7,   -4.5,   -4.5,   -4.6,   -4.7,   -4.4,   -4.2,   -4.1,   -4.3,   -4.3,   -4.2,   -4.0,   -4.0,   -3.9,   -3.8,   -3.6,   -3.4
2010/12/08 23:10,    0.9,  999.0,  999.0,    4.0,  999.0,  999.0,  999.0,  999.0,  999.0,  999.0,  999.0,  999.0,  999.0,  999.0,  999.0,  999.0,    7.9,    8.3,    7.0,    6.3,    6.0,    6.6,    7.9,    8.3,    8.4,    8.0,    7.8,    6.9,    6.0,    5.1,    2.5,    1.7,    2.1,    3.1,    1.6,    0.5,   -0.2,   -0.2,   -0.3,   -0.1,   -0.1,   -0.0,    0.2,   -0.1,   -0.5,   -1.7,  999.0,  999.0,   -4.5,   -4.5,   -4.6,   -4.6,   -4.3,   -3.8,   -3.7,   -3.7,   -3.6,   -3.4,   -3.4,   -3.4,   -3.3,   -3.6,   -3.7,   -3.9,   -4.4,   -4.4,   -4.6,   -4.7,   -4.6,   -4.6,   -4.7,   -4.7,   -4.7,   -4.7,   -4.8,   -4.6,   -4.6,   -4.5,   -4.3,   -4.2,   -4.2,   -4.2,   -4.3,   -4.3,   -4.4,   -4.4,   -4.2,   -4.0,   -3.9,   -3.9,   -4.0,   -3.9,   -3.7,   -3.8,   -3.8,   -3.9,   -4.0,   -3.9
2010/12/08 23:20,    2.0,    2.1,    2.5,    2.9,    2.9,    3.4,    3.8,    3.5,    4.6,    5.6,    6.9,    7.4,    6.6,    8.6,    7.3,    7.2,    6.9,    7.0,    5.7,    5.1,    5.6,    6.1,    6.8,    7.8,    8.0,    6.3,    6.8,    6.0,    5.1,    2.9,    1.2,   -0.2,    1.0,    2.3,    1.4,    0.3,   -0.0,   -0.1,   -0.2,    0.5,    0.9,    0.8,    0.3,    0.5,    0.4,  999.0,  999.0,  999.0,  999.0,   -4.7,   -5.0,   -5.5,   -5.0,   -4.3,   -4.3,   -4.3,   -4.1,   -3.8,   -3.6,   -3.8,   -3.8,   -3.9,   -3.9,   -3.8,   -4.0,   -4.2,   -4.3,   -4.2,   -4.3,   -4.3,   -4.4,   -4.4,   -4.2,   -4.2,   -4.1,   -4.1,   -4.1,   -4.2,   -4.1,   -4.1,   -4.0,   -3.9,   -3.9,   -3.9,   -4.0,   -4.0,   -3.9,   -3.8,   -3.8,   -3.9,   -4.0,   -4.0,   -4.0,   -3.7,   -3.6,   -3.6,   -3.7,   -3.6
2010/12/08 23:30,    2.4,    2.2,    3.1,    3.8,    4.1,    4.6,    4.6,    4.5,    3.9,    5.3,    6.8,    7.5,    7.7,    8.6,    8.9,    8.2,    7.2,    6.6,    4.6,    4.3,    4.5,  999.0,    6.2,    7.5,    7.7,    6.9,    6.5,    5.2,    4.9,    3.2,    1.8,    0.0,    0.3,    1.5,    1.2,    0.2,   -0.7,   -0.8,   -0.2,    0.0,    0.6,    0.5,   -0.3,   -0.8,   -0.6,  999.0,  999.0,  999.0,  999.0,  999.0,   -4.9,   -4.9,   -4.2,   -4.0,   -4.2,   -4.3,   -4.2,   -3.9,   -3.8,   -3.7,   -3.6,   -3.7,   -3.6,   -3.6,   -3.6,   -3.6,   -3.8,   -3.8,   -4.0,   -4.2,   -4.2,   -4.3,   -4.4,   -4.2,   -4.0,   -3.7,   -3.7,   -3.9,   -3.9,   -3.8,   -3.7,   -3.7,   -3.7,   -3.6,   -3.6,   -3.6,   -3.4,   -3.1,   -2.9,   -3.0,   -3.3,   -3.4,   -3.5,   -3.5,   -3.4,   -3.4,   -3.6,   -3.7
2010/12/08 23:40,    2.1,    1.3,    1.7,    2.8,    3.7,    4.7,    4.5,    4.4,    3.9,    4.9,    6.2,    7.0,    7.1,    8.3,    8.8,    7.3,    6.8,    6.6,    5.5,    4.4,    4.7,    5.0,    5.7,    7.9,    7.4,    5.7,    4.0,    3.5,    4.0,    3.1,    2.0,    1.3,  999.0,    1.8,    1.7,  999.0,   -0.5,   -0.0,   -0.3,   -0.2,    0.5,    0.1,   -0.7,  999.0,   -0.1,  999.0,  999.0,  999.0,  999.0,  999.0,   -5.3,   -5.0,   -4.3,   -4.5,   -4.5,   -4.6,   -4.6,   -4.3,   -4.1,   -4.1,   -4.0,   -3.8,   -3.5,   -3.7,   -3.7,   -3.7,   -4.0,   -3.8,   -4.0,   -4.2,   -4.3,   -4.2,   -4.1,   -4.2,   -4.0,   -3.6,   -3.7,   -3.8,   -3.7,   -3.6,   -3.4,   -3.3,   -3.3,   -3.2,   -3.2,   -3.5,   -3.3,   -2.9,   -2.6,   -2.8,   -2.9,   -3.4,   -3.6,   -3.8,   -3.5,   -3.3,   -3.5,   -3.7
2010/12/08 23:50,  999.0,  999.0,  999.0,  999.0,  999.0,  999.0,  999.0,  999.0,  999.0,  999.0,  999.0,  999.0,  999.0,  999.0,  999.0,  999.0,  999.0,  999.0,  999.0,  999.0,  999.0,  999.0,  999.0,  999.0,  999.0,  999.0,  999.0,  999.0,  999.0,  999.0,  999.0,  999.0,  999.0,  999.0,  999.0,  999.0,  999.0,  999.0,  999.0,  999.0,  999.0,  999.0,  999.0,  999.0,  999.0,  999.0,  999.0,  999.0,  999.0,  999.0,  999.0,  999.0,  999.0,  999.0,  999.0,  999.0,  999.0,  999.0,  999.0,  999.0,  999.0,  999.0,  999.0,  999.0,  999.0,  999.0,  999.0,  999.0,  999.0,  999.0,  999.0,  999.0,  999.0,  999.0,  999.0,  999.0,  999.0,  999.0,  999.0,  999.0,  999.0,  999.0,  999.0,  999.0,  999.0,  999.0,  999.0,  999.0,  999.0,  999.0,  999.0,  999.0,  999.0,  999.0,  999.0,  999.0,  999.0,  999.0
